• Join FlightAware (Why Join?)
  • Login
  • US Flag 
01:47PM EDT


 

Airport Tracker/Info


-or-


 

Live Flight TrackerFlight Track Log ✈ BOE236 ✈ 09-Feb-2012 ✈ KBFI - KBFI

Flight Track Log - Related Links

Times and Time Zones

All times are in EST time to prevent confusion due to time zone crossing. See the BOE236 flight status page for this flight to view local times or setup timezone preferences in your user account.

Time Position Orientation Groundspeed Altitude Reporting Facility
EST Latitude Longitude Course Direction KTS MPH feet Rate Location/Type
04:33PM 47.5083 -122.2831 160° South 174 200 1,200  Level Seattle Center
04:34PM 47.5042 -122.2808 144° Southeast 166 191 1,400 1,380 Climbing Seattle Center
04:34PM 47.4786 -122.2536 128° Southeast 195 224 2,200 1,320 Climbing Seattle Center
04:35PM 47.4647 -122.2275 110° East 209 241 2,800 1,920 Climbing Seattle Center
04:35PM 47.4508 -122.1706 106° East 261 300 4,000 2,220 Climbing Seattle Center
04:36PM 47.4425 -122.1269 101° East 261 300 5,100 1,920 Climbing Seattle Center
04:36PM 47.4333 -122.0589 91° East 281 323 6,000 840 Climbing Seattle Center
04:37PM 47.4325 -122.0119 90° East 291 335 6,000 1,800 Level Seattle Center
04:38PM 47.4317 -121.8647 91° East 303 349 8,900 2,340 Climbing Seattle Center
04:39PM 47.4303 -121.7356 91° East 318 366 10,800 1,560 Climbing Seattle Center
04:40PM 47.4275 -121.5803 91° East 388 447 12,100 1,800 Climbing Seattle Center
04:41PM 47.4258 -121.4194 92° East 398 458 14,600 2,880 Climbing Seattle Center
04:42PM 47.4228 -121.2611 92° East 388 447 18,000 2,280 Climbing Seattle Center
04:43PM 47.4200 -121.1106 92° East 379 436 19,300 1,200 Climbing Seattle Center
04:44PM 47.4153 -120.9067 91° East 418 481 20,500 1,260 Climbing Seattle Center
04:45PM 47.4125 -120.7547 92° East 437 503 21,900 1,560 Climbing Seattle Center
04:46PM 47.4072 -120.5303 92° East 455 524 23,700 1,560 Climbing Seattle Center
04:47PM 47.4031 -120.3400 92° East 464 534 25,100 1,260 Climbing Seattle Center
04:48PM 47.3983 -120.1428 92° East 478 550 26,300 1,140 Climbing Seattle Center
04:49PM 47.3922 -119.9392 92° East 493 567 27,500 1,200 Climbing Seattle Center
04:50PM 47.3864 -119.7322 93° East 502 578 28,800 1,140 Climbing Seattle Center
04:51PM 47.3800 -119.5236 86° East 510 587 29,900 1,020 Climbing Seattle Center
04:52PM 47.3886 -119.3114 81° East 525 604 30,900 840 Climbing Seattle Center
04:53PM 47.4108 -119.0964 80° East 533 613 31,700 840 Climbing Seattle Center
04:54PM 47.4308 -118.9239 81° East 534 615 32,500 960 Climbing Salt Lake Center
04:54PM 47.4353 -118.8803 81° East 536 617 32,700 660 Climbing Seattle Center
04:55PM 47.4531 -118.7072 81° East 535 616 33,200 660 Climbing Salt Lake Center
04:55PM 47.4628 -118.6189 81° East 538 619 33,400 660 Climbing Seattle Center
04:56PM 47.4814 -118.4400 81° East 545 627 33,900 540 Climbing Salt Lake Center
04:56PM 47.4864 -118.3950 81° East 549 632 34,000 480 Climbing Seattle Center
04:57PM 47.5047 -118.2139 81° East 555 639 34,400 480 Climbing Salt Lake Center
04:57PM 47.5094 -118.1681 82° East 556 640 34,500 480 Climbing Seattle Center
04:58PM 47.5275 -117.9836 80° East 563 648 34,900 480 Climbing Salt Lake Center
04:58PM 47.5328 -117.9375 82° East 565 650 35,000 60 Climbing Seattle Center
04:59PM 47.5511 -117.7506 83° East 571 657 35,000  Level Salt Lake Center
04:59PM 47.5553 -117.7033 87° East 572 658 35,000  Level Seattle Center
05:00PM 47.5611 -117.5139 92° East 577 664 35,000  Level Salt Lake Center
05:00PM 47.5600 -117.4678 106° East 576 663 35,000  Level Seattle Center
05:01PM 47.5250 -117.2903 128° Southeast 576 663 35,000 -120 Level Salt Lake Center
05:01PM 47.5058 -117.2544 155° Southeast 577 664 34,900 -120 Descending Seattle Center
05:02PM 47.3758 -117.1639 181° South 535 616 34,900  Level Salt Lake Center
05:02PM 47.3481 -117.1644 191° South 522 601 34,900  Level Seattle Center
05:03PM 47.2411 -117.1961 191° South 497 572 34,900 60 Level Salt Lake Center
05:03PM 47.2142 -117.2036 192° South 493 567 35,000  Climbing Seattle Center
05:04PM 47.1083 -117.2358 193° South 490 564 34,900 -120 Descending Salt Lake Center
05:04PM 47.0817 -117.2450 192° South 490 564 34,900 60 Level Seattle Center
05:05PM 46.9756 -117.2794 189° South 491 565 35,000 60 Climbing Salt Lake Center
05:05PM 46.9481 -117.2861 192° South 490 564 35,000 720 Level Seattle Center
05:06PM 46.8156 -117.3258 192° South 488 562 35,900 420 Climbing Seattle Center
05:07PM 46.6869 -117.3656 192° South 476 548 35,900 180 Level Seattle Center
05:08PM 46.5597 -117.4058 192° South 472 543 36,300 540 Climbing Seattle Center
05:09PM 46.4311 -117.4439 192° South 471 542 37,000 240 Climbing Seattle Center
05:10PM 46.2761 -117.4906 192° South 473 544 36,900  Descending Seattle Center
05:11PM 46.1481 -117.5289 191° South 472 543 37,000  Climbing Seattle Center
05:12PM 46.0208 -117.5658 192° South 469 540 37,000 -60 Level Seattle Center
05:13PM 45.8931 -117.6042 191° South 469 540 36,900 -60 Descending Seattle Center
05:14PM 45.7653 -117.6411 191° South 469 540 36,900  Level Seattle Center
05:16PM 45.6464 -117.6750 192° South 469 540 37,000  Climbing Seattle Center
05:17PM 45.4931 -117.7208 191° South 470 541 37,000  Level Seattle Center
05:18PM 45.3647 -117.7578 191° South 471 542 37,000  Level Seattle Center
05:19PM 45.2353 -117.7947 192° South 474 545 37,000  Level Seattle Center
05:20PM 45.1033 -117.8328 191° South 473 544 37,000  Level Seattle Center
05:21PM 44.9800 -117.8672 192° South 472 543 37,000  Level Seattle Center
05:22PM 44.8364 -117.9089 191° South 473 544 37,000  Level Seattle Center
05:23PM 44.7125 -117.9436 191° South 474 545 37,000  Level Seattle Center
05:24PM 44.5681 -117.9839 191° South 474 545 37,000  Level Seattle Center
05:25PM 44.4453 -118.0181 191° South 472 543 37,000  Level Seattle Center
05:26PM 44.3225 -118.0528 191° South 473 544 37,000  Level Seattle Center
05:26PM 44.3033 -118.0581 191° South 472 543 37,000  Level Salt Lake Center
05:27PM 44.1797 -118.0925 191° South 472 543 37,000  Level Salt Lake Center
05:28PM 44.0547 -118.1267 191° South 474 545 37,000  Level Seattle Center
05:29PM 43.9114 -118.1664 192° South 472 543 37,000  Level Seattle Center
05:30PM 43.7858 -118.2022 187° South 478 550 37,000  Level Seattle Center
05:30PM 43.7628 -118.2061 191° South 478 550 37,000  Level Salt Lake Center
05:31PM 43.6386 -118.2392 191° South 477 549 37,000  Level Salt Lake Center
05:32PM 43.4931 -118.2783 191° South 478 550 37,000  Level Salt Lake Center
05:33PM 43.3753 -118.3111 191° South 476 548 37,000  Level Salt Lake Center
05:34PM 43.2450 -118.3464 191° South 477 549 37,000  Level Salt Lake Center
05:35PM 43.1153 -118.3819 191° South 479 551 37,000  Level Salt Lake Center
05:36PM 42.9586 -118.4242 190° South 480 552 37,000  Level Salt Lake Center
05:37PM 42.8292 -118.4561 191° South 478 550 37,000  Level Salt Lake Center
05:38PM 42.7069 -118.4889 190° South 458 527 37,000  Level Salt Lake Center
05:39PM 42.5861 -118.5169 143° Southeast 446 513 37,000  Level Salt Lake Center
05:40PM 42.4806 -118.4083 70° East 523 602 37,000  Level Salt Lake Center
05:41PM 42.5319 -118.2131 351° North 491 565 37,000  Level Salt Lake Center
05:42PM 42.6378 -118.2361 331° Northwest 399 459 37,000  Level Salt Lake Center
05:43PM 42.7297 -118.3053 333° Northwest 381 438 37,000  Level Salt Lake Center
05:44PM 42.8272 -118.3744 336° Northwest 392 451 37,000  Level Salt Lake Center
05:45PM 42.9322 -118.4378 10° North 412 474 37,000  Level Salt Lake Center
05:46PM 43.0844 -118.4022 12° North 478 550 37,000  Level Salt Lake Center
05:47PM 43.2142 -118.3647 12° North 479 551 37,000  Level Salt Lake Center
05:49PM 43.3433 -118.3258 12° North 479 551 37,000  Level Salt Lake Center
05:50PM 43.4722 -118.2867 13° North 478 550 37,000  Level Salt Lake Center
05:51PM 43.6139 -118.2422 12° North 474 545 37,000  Level Salt Lake Center
05:52PM 43.7383 -118.2058 12° North 476 548 37,000  Level Salt Lake Center
05:53PM 43.8844 -118.1614 12° North 478 550 37,000  Level Salt Lake Center
05:54PM 44.0094 -118.1231 12° North 479 551 37,000  Level Salt Lake Center
05:55PM 44.1561 -118.0786 12° North 480 552 37,000  Level Salt Lake Center
05:56PM 44.2817 -118.0403 13° North 481 554 37,000  Level Salt Lake Center
05:57PM 44.4269 -117.9947 14° North 479 551 37,000  Level Salt Lake Center
05:58PM 44.5442 -117.9550 14° North 464 534 37,000  Level Salt Lake Center
05:59PM 44.6792 -117.9083 15° North 448 516 37,000  Level Salt Lake Center
06:00PM 44.7956 -117.8653 70° East 449 517 37,000  Level Salt Lake Center
06:01PM 44.8475 -117.6614 100° East 532 612 37,000  Level Salt Lake Center
06:02PM 44.8206 -117.4561 101° East 561 646 37,000  Level Salt Lake Center
06:03PM 44.7861 -117.2136 101° East 568 654 37,000  Level Salt Lake Center
06:04PM 44.7561 -117.0000 99° East 578 665 37,000  Level Salt Lake Center
06:05PM 44.7322 -116.7825 98° East 583 671 37,000  Level Salt Lake Center
06:06PM 44.7075 -116.5267 98° East 588 677 37,000  Level Salt Lake Center
06:07PM 44.6856 -116.3056 98° East 591 680 37,000  Level Salt Lake Center
06:10PM 44.6128 -115.6028 99° East 592 681 37,000  Level Salt Lake Center
06:11PM 44.5847 -115.3461 99° East 594 684 37,000  Level Salt Lake Center
06:12PM 44.5606 -115.1269 99° East 594 684 37,000  Level Salt Lake Center
06:13PM 44.5311 -114.8725 99° East 593 682 37,000  Level Salt Lake Center
06:14PM 44.5053 -114.6547 99° East 593 682 37,000  Level Salt Lake Center
06:15PM 44.4758 -114.4006 99° East 592 681 37,000  Level Salt Lake Center
06:16PM 44.4497 -114.1828 100° East 592 681 37,000  Level Salt Lake Center
06:17PM 44.4167 -113.9292 99° East 594 684 37,000  Level Salt Lake Center
06:19PM 44.3922 -113.7250 100° East 594 684 37,000  Level Salt Lake Center
06:20PM 44.3606 -113.4719 100° East 594 684 37,000  Level Salt Lake Center
06:21PM 44.3325 -113.2556 100° East 593 682 37,000  Level Salt Lake Center
06:22PM 44.3003 -113.0039 101° East 591 680 37,000  Level Salt Lake Center
06:23PM 44.2714 -112.7897 82° East 590 679 37,000  Level Salt Lake Center
06:24PM 44.2953 -112.5583 40° Northeast 549 632 37,000  Level Salt Lake Center
06:25PM 44.3886 -112.4486 14° North 467 537 37,000  Level Salt Lake Center
06:26PM 44.5147 -112.4033 14° North 422 486 37,000  Level Salt Lake Center
06:27PM 44.6217 -112.3647 14° North 416 479 37,000  Level Salt Lake Center
06:28PM 44.7303 -112.3267 14° North 418 481 37,000  Level Salt Lake Center
06:29PM 44.8569 -112.2819 14° North 418 481 37,000  Level Salt Lake Center
06:30PM 44.9656 -112.2436 14° North 418 481 37,000  Level Salt Lake Center
06:31PM 45.0914 -112.2003 14° North 417 480 37,000  Level Salt Lake Center
06:32PM 45.2003 -112.1606 14° North 419 482 37,000  Level Salt Lake Center
06:33PM 45.3275 -112.1147 14° North 420 483 37,000  Level Salt Lake Center
06:34PM 45.4450 -112.0744 14° North 418 481 37,000  Level Salt Lake Center
06:35PM 45.5581 -112.0331 14° North 418 481 37,000  Level Salt Lake Center
06:36PM 45.6722 -111.9925 14° North 419 482 37,000  Level Salt Lake Center
06:37PM 45.7861 -111.9511 14° North 420 483 37,000  Level Salt Lake Center
06:38PM 45.9000 -111.9092 14° North 420 483 37,000  Level Salt Lake Center
06:39PM 46.0147 -111.8681 15° North 420 483 37,000  Level Salt Lake Center
06:40PM 46.1281 -111.8247 14° North 419 482 37,000  Level Salt Lake Center
06:41PM 46.2419 -111.7842 14° North 419 482 37,000  Level Salt Lake Center
06:42PM 46.3783 -111.7347 14° North 419 482 37,000  Level Salt Lake Center
06:43PM 46.4925 -111.6919 14° North 421 484 37,000  Level Salt Lake Center
06:44PM 46.6072 -111.6492 14° North 423 487 37,000  Level Salt Lake Center
06:45PM 46.7219 -111.6069 16° North 423 487 37,000 -60 Level Salt Lake Center
06:46PM 46.8375 -111.5600 15° North 427 491 36,900  Descending Salt Lake Center
06:47PM 46.9506 -111.5153 15° North 430 495 37,000  Climbing Salt Lake Center
06:48PM 47.0878 -111.4622 North 428 493 37,000 -60 Level Salt Lake Center
06:50PM 47.1981 -111.4606 304° West 415 478 36,900  Descending Salt Lake Center
06:51PM 47.2544 -111.5833 275° West 379 436 37,000  Climbing Salt Lake Center
06:52PM 47.2636 -111.7433 278° West 391 450 37,000  Level Salt Lake Center
06:53PM 47.2778 -111.8981 277° West 384 442 37,000  Level Salt Lake Center
06:54PM 47.2911 -112.0561 278° West 386 444 37,000  Level Salt Lake Center
06:55PM 47.3056 -112.2128 277° West 386 444 37,000  Level Salt Lake Center
06:56PM 47.3219 -112.4011 277° West 387 445 37,000  Level Salt Lake Center
06:57PM 47.3353 -112.5561 277° West 384 442 37,000 -60 Level Salt Lake Center
06:58PM 47.3481 -112.7114 277° West 383 441 36,900  Descending Salt Lake Center
06:59PM 47.3608 -112.8669 278° West 382 440 37,000  Climbing Salt Lake Center
07:00PM 47.3758 -113.0358 277° West 384 442 36,900 -60 Descending Salt Lake Center
07:01PM 47.3889 -113.1942 277° West 387 445 36,900  Level Salt Lake Center
07:02PM 47.4011 -113.3492 277° West 383 441 37,000  Climbing Salt Lake Center
07:03PM 47.4133 -113.5039 276° West 381 438 36,900 240 Descending Salt Lake Center
07:04PM 47.4244 -113.6575 276° West 378 435 37,500 480 Climbing Salt Lake Center
07:05PM 47.4381 -113.8422 277° West 377 434 38,000 480 Climbing Salt Lake Center
07:06PM 47.4500 -113.9986 276° West 380 437 38,500 240 Climbing Salt Lake Center
07:07PM 47.4611 -114.1544 276° West 381 438 38,600 240 Climbing Salt Lake Center
07:08PM 47.4725 -114.3131 276° West 385 443 39,000 240 Climbing Salt Lake Center
07:09PM 47.4792 -114.4097 275° West 388 447 39,000 -120 Level Salt Lake Center
07:10PM 47.4892 -114.5708 246° West 390 449 38,900 -60 Descending Salt Lake Center
07:10PM 47.4514 -114.6964 205° Southwest 423 487 38,900  Level Seattle Center
07:12PM 47.3333 -114.7792 193° South 485 558 39,000  Climbing Seattle Center
07:12PM 47.3064 -114.7881 194° South 497 572 38,900  Descending Salt Lake Center
07:13PM 47.1464 -114.8461 194° South 494 568 39,000  Climbing Salt Lake Center
07:14PM 47.0128 -114.8944 194° South 496 571 38,900  Descending Salt Lake Center
07:16PM 46.7992 -114.9725 194° South 495 570 39,000  Climbing Seattle Center
07:17PM 46.6492 -115.0258 193° South 491 565 38,900  Descending Seattle Center
07:18PM 46.5161 -115.0722 194° South 492 566 39,000  Climbing Seattle Center
07:19PM 46.3836 -115.1192 194° South 490 564 38,900  Descending Seattle Center
07:20PM 46.2511 -115.1658 194° South 489 563 39,000  Climbing Seattle Center
07:21PM 46.1178 -115.2128 194° South 493 567 39,000  Level Seattle Center
07:21PM 46.0492 -115.2367 193° South 492 566 39,000  Level Salt Lake Center
07:22PM 45.9219 -115.2803 194° South 491 565 39,000  Level Salt Lake Center
07:23PM 45.8375 -115.3106 193° South 488 562 39,000  Level Seattle Center
07:24PM 45.7108 -115.3533 194° South 488 562 39,000  Level Seattle Center
07:25PM 45.5642 -115.4039 193° South 486 559 39,000  Level Seattle Center
07:25PM 45.5019 -115.4247 194° South 486 559 39,000  Level Salt Lake Center
07:26PM 45.3775 -115.4678 193° South 483 556 39,000  Level Salt Lake Center
07:27PM 45.2322 -115.5172 193° South 480 552 39,000  Level Salt Lake Center
07:28PM 45.1064 -115.5594 193° South 483 556 39,000  Level Salt Lake Center
07:29PM 44.9589 -115.6094 194° South 486 559 39,000  Level Salt Lake Center
07:30PM 44.8333 -115.6522 194° South 485 558 39,000  Level Salt Lake Center
07:31PM 44.6875 -115.7017 193° South 482 555 39,000  Level Salt Lake Center
07:33PM 44.5614 -115.7428 193° South 482 555 39,000  Level Salt Lake Center
07:34PM 44.4336 -115.7856 193° South 484 557 39,000  Level Salt Lake Center
07:35PM 44.2844 -115.8342 193° South 486 559 39,000  Level Salt Lake Center
07:36PM 44.1567 -115.8764 194° South 487 560 39,000  Level Salt Lake Center
07:37PM 44.0100 -115.9256 193° South 484 557 39,000  Level Salt Lake Center
07:38PM 43.8844 -115.9669 193° South 483 556 39,000  Level Salt Lake Center
07:39PM 43.7378 -116.0136 193° South 483 556 39,000  Level Salt Lake Center
07:41PM 43.4639 -116.1008 193° South 486 559 39,000  Level Salt Lake Center
07:42PM 43.3369 -116.1408 193° South 488 562 39,000  Level Salt Lake Center
07:43PM 43.2108 -116.1814 193° South 486 559 39,000  Level Salt Lake Center
07:44PM 43.0614 -116.2275 193° South 491 565 39,000  Level Salt Lake Center
07:45PM 42.9344 -116.2667 193° South 489 563 39,000  Level Salt Lake Center
07:46PM 42.7861 -116.3119 193° South 488 562 39,000  Level Salt Lake Center
07:47PM 42.6592 -116.3511 193° South 488 562 39,000  Level Salt Lake Center
07:48PM 42.5108 -116.3978 192° South 489 563 39,000  Level Salt Lake Center
07:49PM 42.3836 -116.4358 157° South 489 563 39,000  Level Salt Lake Center
07:50PM 42.2342 -116.3492 112° Southeast 549 632 39,000  Level Salt Lake Center
07:51PM 42.1775 -116.1622 103° East 574 661 39,000  Level Salt Lake Center
07:52PM 42.1381 -115.9306 103° East 568 654 39,000  Level Salt Lake Center
07:53PM 42.1036 -115.7311 103° East 572 658 39,000  Level Salt Lake Center
07:54PM 42.0622 -115.4997 103° East 573 659 39,000  Level Salt Lake Center
07:55PM 42.0267 -115.3003 104° East 572 658 39,000  Level Salt Lake Center
07:56PM 41.9897 -115.0997 104° East 575 662 39,000  Level Salt Lake Center
07:57PM 41.9469 -114.8664 104° East 576 663 39,000  Level Salt Lake Center
07:58PM 41.9106 -114.6667 104° East 575 662 39,000  Level Salt Lake Center
07:59PM 41.8689 -114.4492 104° East 577 664 39,000  Level Salt Lake Center
08:00PM 41.8219 -114.2042 104° East 577 664 39,000  Level Salt Lake Center
08:02PM 41.7814 -113.9922 105° East 580 667 39,000  Level Salt Lake Center
08:03PM 41.7392 -113.7825 99° East 580 667 39,000  Level Salt Lake Center
08:04PM 41.7133 -113.5711 62° Northeast 577 664 39,000  Level Salt Lake Center
08:05PM 41.7794 -113.4075 24° Northeast 504 580 39,000  Level Salt Lake Center
08:06PM 41.8942 -113.3397 13° North 449 517 39,000  Level Salt Lake Center
08:07PM 42.0103 -113.3036 14° North 428 493 39,000  Level Salt Lake Center
08:08PM 42.1272 -113.2653 14° North 429 494 39,000  Level Salt Lake Center
08:09PM 42.2647 -113.2203 14° North 430 495 39,000  Level Salt Lake Center
08:10PM 42.3828 -113.1811 14° North 431 496 39,000  Level Salt Lake Center
08:11PM 42.5006 -113.1414 13° North 432 497 39,000  Level Salt Lake Center
08:12PM 42.6181 -113.1033 14° North 431 496 39,000  Level Salt Lake Center
08:13PM 42.7392 -113.0622 14° North 432 497 39,000  Level Salt Lake Center
08:14PM 42.8506 -113.0250 14° North 430 495 39,000  Level Salt Lake Center
08:15PM 42.9806 -112.9822 14° North 430 495 39,000  Level Salt Lake Center
08:16PM 43.0911 -112.9444 14° North 429 494 39,000  Level Salt Lake Center
08:17PM 43.2242 -112.8989 14° North 429 494 39,000  Level Salt Lake Center
08:18PM 43.3319 -112.8611 14° North 429 494 39,000  Level Salt Lake Center
08:19PM 43.4622 -112.8175 14° North 431 496 39,000  Level Salt Lake Center
08:20PM 43.5731 -112.7789 15° North 430 495 39,000  Level Salt Lake Center
08:21PM 43.7014 -112.7325 13° North 428 493 39,000  Level Salt Lake Center
08:22PM 43.8119 -112.6964 14° North 426 490 39,000  Level Salt Lake Center
08:23PM 43.9411 -112.6525 14° North 427 491 39,000  Level Salt Lake Center
08:24PM 44.0519 -112.6131 14° North 428 493 39,000  Level Salt Lake Center
08:25PM 44.1806 -112.5675 14° North 427 491 39,000  Level Salt Lake Center
08:26PM 44.2922 -112.5286 14° North 429 494 39,000  Level Salt Lake Center
08:27PM 44.4039 -112.4894 14° North 430 495 39,000  Level Salt Lake Center
08:28PM 44.5347 -112.4431 14° North 432 497 39,000  Level Salt Lake Center
08:29PM 44.6469 -112.4025 14° North 432 497 39,000  Level Salt Lake Center
08:30PM 44.7778 -112.3564 14° North 432 497 39,000  Level Salt Lake Center
08:31PM 44.8889 -112.3158 14° North 431 496 39,000  Level Salt Lake Center
08:33PM 45.0189 -112.2703 15° North 429 494 39,000  Level Salt Lake Center
08:34PM 45.1314 -112.2286 14° North 433 498 39,000  Level Salt Lake Center
08:35PM 45.2419 -112.1881 14° North 430 495 39,000  Level Salt Lake Center
08:36PM 45.3706 -112.1431 15° North 427 491 39,000  Level Salt Lake Center
08:37PM 45.4736 -112.1047 15° North 426 490 39,000  Level Salt Lake Center
08:38PM 45.6136 -112.0522 14° North 429 494 39,000  Level Salt Lake Center
08:39PM 45.7303 -112.0092 14° North 430 495 39,000  Level Salt Lake Center
08:40PM 45.8489 -111.9667 15° North 434 499 39,000  Level Salt Lake Center
08:41PM 45.9669 -111.9217 15° North 435 501 39,000  Level Salt Lake Center
08:42PM 46.0839 -111.8775 15° North 433 498 39,000  Level Salt Lake Center
08:43PM 46.2008 -111.8331 14° North 432 497 39,000  Level Salt Lake Center
08:44PM 46.3175 -111.7894 15° North 432 497 39,000 -60 Level Salt Lake Center
08:45PM 46.4486 -111.7378 15° North 431 496 38,900  Descending Salt Lake Center
08:46PM 46.5653 -111.6928 15° North 433 498 39,000  Climbing Salt Lake Center
08:47PM 46.6822 -111.6478 15° North 435 501 39,000  Level Salt Lake Center
08:48PM 46.8000 -111.6019 15° North 437 503 39,000 -60 Level Salt Lake Center
08:49PM 46.9178 -111.5556 15° North 439 505 38,900  Descending Salt Lake Center
08:50PM 47.0356 -111.5097 24° Northeast 439 505 39,000  Climbing Salt Lake Center
08:51PM 47.1489 -111.4353 68° East 456 525 38,900  Descending Salt Lake Center
08:52PM 47.2111 -111.2061 97° East 526 605 39,000  Climbing Salt Lake Center
08:53PM 47.1911 -110.9783 98° East 573 659 39,000 -60 Level Salt Lake Center
08:54PM 47.1675 -110.7464 99° East 578 665 38,900  Descending Salt Lake Center
08:55PM 47.1431 -110.5144 99° East 579 666 39,000  Climbing Salt Lake Center
08:56PM 47.1189 -110.2817 99° East 580 667 38,900 -60 Descending Salt Lake Center
08:57PM 47.0900 -110.0014 98° East 581 669 38,900  Level Salt Lake Center
08:58PM 47.0675 -109.7678 99° East 582 670 39,000  Climbing Salt Lake Center
08:59PM 47.0417 -109.5422 99° East 574 661 38,900 -60 Descending Salt Lake Center
09:00PM 47.0156 -109.3150 100° East 568 654 38,900  Level Salt Lake Center
09:01PM 46.9894 -109.0892 100° East 567 652 39,000  Climbing Salt Lake Center
09:02PM 46.9581 -108.8383 100° East 563 648 39,000  Level Salt Lake Center
09:03PM 46.9325 -108.6203 100° East 565 650 39,000  Level Salt Lake Center
09:04PM 46.9019 -108.3683 100° East 564 649 39,000  Level Salt Lake Center
09:05PM 46.8758 -108.1525 100° East 564 649 39,000  Level Salt Lake Center
09:06PM 46.8483 -107.9325 100° East 568 654 39,000  Level Salt Lake Center
09:08PM 46.8161 -107.6750 108° East 574 661 39,000  Level Salt Lake Center
09:09PM 46.7700 -107.4650 151° Southeast 576 663 39,000  Level Salt Lake Center
09:10PM 46.6111 -107.3381 195° South 608 700 39,000  Level Salt Lake Center
09:11PM 46.4703 -107.3928 206° Southwest 556 640 39,000  Level Salt Lake Center
09:12PM 46.3206 -107.4969 206° Southwest 535 616 39,000  Level Salt Lake Center
09:13PM 46.1939 -107.5881 207° Southwest 533 613 39,000  Level Salt Lake Center
09:14PM 46.0678 -107.6792 206° Southwest 531 611 39,000  Level Salt Lake Center
09:15PM 45.9206 -107.7844 206° Southwest 530 610 39,000  Level Salt Lake Center
09:16PM 45.7942 -107.8733 207° Southwest 529 609 39,000  Level Salt Lake Center
09:17PM 45.6486 -107.9772 206° Southwest 526 605 39,000  Level Salt Lake Center
09:18PM 45.5231 -108.0658 206° Southwest 526 605 39,000  Level Salt Lake Center
09:19PM 45.3747 -108.1694 206° Southwest 532 612 39,000  Level Salt Lake Center
09:20PM 45.2489 -108.2575 206° Southwest 530 610 39,000  Level Salt Lake Center
09:21PM 45.1019 -108.3600 206° Southwest 530 610 39,000  Level Salt Lake Center
09:22PM 44.9775 -108.4475 206° Southwest 528 608 39,000  Level Salt Lake Center
09:23PM 44.8519 -108.5333 206° Southwest 527 606 39,000  Level Salt Lake Center
09:24PM 44.7056 -108.6322 206° Southwest 527 606 39,000  Level Salt Lake Center
09:26PM 44.4378 -108.8136 206° Southwest 516 594 39,000  Level Salt Lake Center
09:27PM 44.3139 -108.8964 206° Southwest 516 594 39,000  Level Salt Lake Center
09:28PM 44.1689 -108.9931 206° Southwest 517 595 39,000  Level Salt Lake Center
09:29PM 44.0442 -109.0761 205° Southwest 519 597 39,000  Level Salt Lake Center
09:30PM 43.8983 -109.1725 205° Southwest 519 597 39,000  Level Salt Lake Center
09:31PM 43.7728 -109.2544 205° Southwest 521 600 39,000  Level Salt Lake Center
09:32PM 43.6481 -109.3364 205° Southwest 520 598 39,000  Level Salt Lake Center
09:33PM 43.5022 -109.4322 205° Southwest 520 598 39,000  Level Salt Lake Center
09:34PM 43.3758 -109.5131 205° Southwest 521 600 39,000  Level Salt Lake Center
09:35PM 43.2281 -109.6089 205° Southwest 524 603 39,000  Level Salt Lake Center
09:36PM 43.1017 -109.6894 205° Southwest 524 603 39,000  Level Salt Lake Center
09:37PM 42.9617 -109.7797 205° Southwest 523 602 39,000  Level Salt Lake Center
09:38PM 42.8231 -109.8675 205° Southwest 519 597 39,000  Level Salt Lake Center
09:39PM 42.6897 -109.9519 205° Southwest 522 601 39,000  Level Salt Lake Center
09:40PM 42.5622 -110.0314 205° Southwest 526 605 39,000  Level Salt Lake Center
09:41PM 42.4142 -110.1228 205° Southwest 526 605 39,000  Level Salt Lake Center
09:42PM 42.2872 -110.2031 205° Southwest 527 606 39,000  Level Salt Lake Center
09:43PM 42.1408 -110.2933 204° Southwest 521 600 39,000  Level Salt Lake Center
09:44PM 42.0156 -110.3700 205° Southwest 520 598 39,000  Level Salt Lake Center
09:46PM 41.8900 -110.4478 204° Southwest 520 598 39,000  Level Salt Lake Center
09:47PM 41.7417 -110.5378 205° Southwest 524 603 39,000  Level Salt Lake Center
09:48PM 41.6139 -110.6158 204° Southwest 527 606 39,000  Level Salt Lake Center
09:49PM 41.4644 -110.7047 204° Southwest 528 608 39,000  Level Salt Lake Center
09:50PM 41.3397 -110.7792 253° West 523 602 39,000  Level Salt Lake Center
09:51PM 41.3078 -110.9200 360° North 384 442 39,000  Level Salt Lake Center
09:52PM 41.3950 -110.9203 66° East 383 441 39,000  Level Salt Lake Center
09:53PM 41.4475 -110.7658 51° Northeast 475 547 39,000  Level Salt Lake Center
09:54PM 41.5339 -110.6219 25° Northeast 455 524 39,000  Level Salt Lake Center
09:55PM 41.6342 -110.5606 23° Northeast 422 486 39,000  Level Salt Lake Center
09:56PM 41.7575 -110.4900 24° Northeast 424 488 39,000  Level Salt Lake Center
09:57PM 41.8608 -110.4272 24° Northeast 425 489 39,000  Level Salt Lake Center
09:58PM 41.9817 -110.3533 24° Northeast 426 490 39,000  Level Salt Lake Center
09:59PM 42.0861 -110.2911 24° Northeast 427 491 39,000  Level Salt Lake Center
10:00PM 42.1900 -110.2289 25° Northeast 426 490 39,000  Level Salt Lake Center
10:01PM 42.3100 -110.1536 24° Northeast 425 489 39,000  Level Salt Lake Center
10:02PM 42.4147 -110.0903 24° Northeast 429 494 39,000  Level Salt Lake Center
10:03PM 42.5361 -110.0156 24° Northeast 428 493 39,000  Level Salt Lake Center
10:04PM 42.6383 -109.9536 24° Northeast 423 487 39,000  Level Salt Lake Center
10:05PM 42.7558 -109.8808 25° Northeast 424 488 39,000  Level Salt Lake Center
10:06PM 42.8619 -109.8147 25° Northeast 425 489 39,000  Level Salt Lake Center
10:07PM 42.9742 -109.7447 25° Northeast 424 488 39,000  Level Salt Lake Center
10:08PM 43.0772 -109.6794 25° Northeast 426 490 39,000  Level Salt Lake Center
10:09PM 43.1975 -109.6033 25° Northeast 426 490 39,000  Level Salt Lake Center
10:10PM 43.3008 -109.5381 25° Northeast 426 490 39,000  Level Salt Lake Center
10:11PM 43.4222 -109.4614 25° Northeast 428 493 39,000  Level Salt Lake Center
10:12PM 43.5258 -109.3953 25° Northeast 428 493 39,000  Level Salt Lake Center
10:13PM 43.6286 -109.3297 25° Northeast 427 491 39,000  Level Salt Lake Center
10:14PM 43.7492 -109.2522 25° Northeast 426 490 39,000  Level Salt Lake Center
10:15PM 43.8528 -109.1861 25° Northeast 427 491 39,000  Level Salt Lake Center
10:16PM 43.9736 -109.1067 44° Northeast 429 494 39,000  Level Salt Lake Center
10:17PM 44.0606 -108.9886 85° East 475 547 39,000  Level Salt Lake Center
10:18PM 44.0764 -108.7553 92° East 561 646 39,000  Level Salt Lake Center
10:19PM 44.0717 -108.5469 92° East 567 652 39,000  Level Salt Lake Center
10:20PM 44.0647 -108.3036 92° East 567 652 39,000  Level Salt Lake Center
10:22PM 44.0586 -108.0944 92° East 568 654 39,000  Level Salt Lake Center
10:23PM 44.0522 -107.8533 93° East 565 650 39,000  Level Salt Lake Center
10:24PM 44.0456 -107.6511 92° East 556 640 39,000  Level Salt Lake Center
10:25PM 44.0392 -107.4508 93° East 549 632 39,000  Level Salt Lake Center
10:26PM 44.0308 -107.2203 92° East 540 621 39,000  Level Salt Lake Center
10:27PM 44.0250 -107.0225 93° East 538 619 39,000  Level Salt Lake Center
10:28PM 44.0161 -106.7925 93° East 537 618 39,000  Level Salt Lake Center
10:29PM 44.0075 -106.5947 116° Southeast 536 617 39,000  Level Salt Lake Center
10:30PM 43.9331 -106.3806 148° Southeast 578 665 39,000  Level Salt Lake Center
10:31PM 43.7978 -106.2614 141° Southeast 602 693 39,000  Level Salt Lake Center
10:31PM 43.7742 -106.2353 148° Southeast 578 665 39,000  Level Denver Center
10:32PM 43.6344 -106.1153 146° Southeast 598 688 39,000  Level Denver Center
10:33PM 43.5092 -105.9989 135° Southeast 605 696 39,000  Level Denver Center
10:39PM 42.8174 -105.0720 136° Southeast 597 687 39,000  Level FlightAware ADS-B
10:39PM 42.7568 -104.9910 135° Southeast 599 689 39,000  Level FlightAware ADS-B
10:40PM 42.6970 -104.9110 136° Southeast 594 684 39,000  Level FlightAware ADS-B
10:40PM 42.6321 -104.8250 136° Southeast 590 679 39,000  Level FlightAware ADS-B
10:41PM 42.5733 -104.7470 136° Southeast 588 677 39,000  Level FlightAware ADS-B
10:41PM 42.5142 -104.6700 136° Southeast 587 676 39,000  Level FlightAware ADS-B
10:42PM 42.4492 -104.5840 136° Southeast 588 677 39,000  Level FlightAware ADS-B
10:42PM 42.3899 -104.5060 136° Southeast 589 678 39,000  Level FlightAware ADS-B
10:43PM 42.3309 -104.4290 136° Southeast 589 678 39,000  Level FlightAware ADS-B
10:43PM 42.2716 -104.3520 136° Southeast 586 674 39,000  Level FlightAware ADS-B
10:44PM 42.2130 -104.2750 136° Southeast 579 666 39,000  Level FlightAware ADS-B
10:44PM 42.1555 -104.2010 136° Southeast 575 662 39,000  Level FlightAware ADS-B
10:45PM 42.0932 -104.1200 136° Southeast 574 661 39,000  Level FlightAware ADS-B
10:45PM 42.0410 -104.0520 132° Southeast 572 658 39,000  Level FlightAware ADS-B
10:46PM 42.0092 -104.0050 128° Southeast 567 652 39,000  Level FlightAware ADS-B
10:46PM 41.9714 -103.9390 123° Southeast 563 648 39,000  Level FlightAware ADS-B
10:46PM 41.9290 -103.8510 123° Southeast 560 644 39,000  Level FlightAware ADS-B
10:47PM 41.8863 -103.7620 123° Southeast 564 649 39,000  Level FlightAware ADS-B
10:47PM 41.8435 -103.6730 119° Southeast 566 651 39,000  Level FlightAware ADS-B
10:48PM 41.8024 -103.5750 113° Southeast 558 642 39,000  Level FlightAware ADS-B
10:48PM 41.7819 -103.5110 109° East 552 635 39,000  Level FlightAware ADS-B
10:49PM 41.7572 -103.4140 109° East 545 627 39,000  Level FlightAware ADS-B
10:49PM 41.7325 -103.3180 109° East 545 627 39,000  Level FlightAware ADS-B
10:50PM 41.7079 -103.2220 109° East 545 627 39,000  Level FlightAware ADS-B
10:50PM 41.6830 -103.1270 109° East 545 627 39,000  Level FlightAware ADS-B
10:51PM 41.6580 -103.0300 108° East 545 627 39,000  Level FlightAware ADS-B
10:51PM 41.6457 -102.9790 103° East 540 621 39,000  Level FlightAware ADS-B
10:51PM 41.6367 -102.9280 98° East 532 612 39,000  Level FlightAware ADS-B
10:52PM 41.6298 -102.8630 93° East 523 602 39,000  Level FlightAware ADS-B
10:52PM 41.6257 -102.7660 93° East 520 598 39,000  Level FlightAware ADS-B
10:53PM 41.6212 -102.6500 93° East 521 600 39,000  Level FlightAware ADS-B
10:53PM 41.6171 -102.5530 93° East 523 602 39,000  Level FlightAware ADS-B
10:54PM 41.6118 -102.4280 93° East 523 602 39,000  Level FlightAware ADS-B
10:55PM 41.6064 -102.3020 93° East 523 602 39,000  Level FlightAware ADS-B
10:56PM 41.5982 -102.1170 93° East 518 596 39,000  Level FlightAware ADS-B
10:56PM 41.5905 -101.9490 94° East 516 594 39,000  Level FlightAware ADS-B
10:57PM 41.5835 -101.8010 94° East 511 588 39,000  Level FlightAware ADS-B
10:58PM 41.5789 -101.7050 94° East 508 585 39,000  Level FlightAware ADS-B
10:58PM 41.5739 -101.6010 94° East 509 586 39,000  Level FlightAware ADS-B
10:59PM 41.5691 -101.5060 94° East 509 586 39,000  Level FlightAware ADS-B
10:59PM 41.5643 -101.4110 94° East 510 587 39,000  Level FlightAware ADS-B
11:00PM 41.5594 -101.3170 94° East 511 588 39,000  Level FlightAware ADS-B
11:00PM 41.5540 -101.2140 94° East 512 589 39,000  Level FlightAware ADS-B
11:01PM 41.5484 -101.1090 95° East 514 592 39,000  Level FlightAware ADS-B
11:02PM 41.5392 -100.9575 92° East 516 594 39,000  Level Denver Center
11:03PM 41.5342 -100.7692 65° Northeast 510 587 39,000  Level Denver Center
11:04PM 41.5944 -100.5972 59° Northeast 464 534 39,100 300 Climbing Denver Center
11:05PM 41.6619 -100.4492 57° Northeast 469 540 39,700 480 Climbing Denver Center
11:06PM 41.7333 -100.3006 58° Northeast 469 540 40,100 360 Climbing Denver Center
11:07PM 41.7950 -100.1667 57° Northeast 474 545 40,500 240 Climbing Denver Center
11:09PM 41.9761 -99.7833 58° Northeast 476 548 41,000 120 Climbing Minneapolis Center
11:10PM 42.0453 -99.6339 58° Northeast 476 548 41,000  Level Minneapolis Center
11:14PM 42.2722 -99.1381 59° Northeast 484 557 41,000  Level Minneapolis Center
11:15PM 42.3425 -98.9817 74° East 479 551 41,000  Level Minneapolis Center
11:16PM 42.3806 -98.8025 120° Southeast 479 551 41,000  Level Minneapolis Center
11:17PM 42.3111 -98.6422 157° South 458 527 41,000  Level Minneapolis Center
11:18PM 42.1672 -98.5597 150° Southeast 429 494 41,000  Level Minneapolis Center
11:19PM 42.0406 -98.4625 103° East 466 536 41,000  Level Minneapolis Center
11:20PM 42.0092 -98.2756 92° East 472 543 41,000  Level Minneapolis Center
11:22PM 41.9986 -97.8867 90° East 496 571 41,000  Level Minneapolis Center
11:23PM 41.9978 -97.6942 90° East 507 583 41,000  Level Minneapolis Center
11:24PM 41.9969 -97.4986 91° East 513 590 41,000  Level Minneapolis Center
11:25PM 41.9936 -97.3003 91° East 524 603 41,000  Level Minneapolis Center
11:26PM 41.9900 -97.1075 91° East 524 603 41,000  Level Minneapolis Center
11:27PM 41.9881 -96.9119 92° East 519 597 41,000  Level Minneapolis Center
11:28PM 41.9836 -96.7164 91° East 519 597 41,000  Level Minneapolis Center
11:29PM 41.9811 -96.5153 91° East 519 597 41,000  Level Minneapolis Center
11:30PM 41.9781 -96.3228 91° East 519 597 41,000  Level Minneapolis Center
11:31PM 41.9747 -96.1217 91° East 526 605 41,000  Level Minneapolis Center
11:32PM 41.9725 -95.9458 92° East 526 605 41,000  Level Minneapolis Center
11:33PM 41.9667 -95.7478 92° East 532 612 41,000  Level Minneapolis Center
11:34PM 41.9622 -95.5522 93° East 532 612 41,000  Level Minneapolis Center
11:35PM 41.9553 -95.3542 92° East 532 612 41,000  Level Minneapolis Center
11:36PM 41.9503 -95.1589 94° East 532 612 41,000  Level Minneapolis Center
11:37PM 41.9408 -94.9578 91° East 532 612 41,000  Level Minneapolis Center
11:38PM 41.9369 -94.7600 94° East 537 618 41,000  Level Minneapolis Center
11:39PM 41.9267 -94.5644 92° East 531 611 41,000  Level Minneapolis Center
11:40PM 41.9222 -94.3694 94° East 531 611 41,000  Level Minneapolis Center
11:42PM 41.8989 -93.9228 93° East 524 603 41,000  Level Chicago Center
11:43PM 41.8919 -93.7269 93° East 523 602 41,000  Level Chicago Center
11:44PM 41.8847 -93.5283 93° East 523 602 41,000  Level Chicago Center
11:45PM 41.8772 -93.3325 95° East 528 608 41,000  Level Chicago Center
11:46PM 41.8631 -93.1336 93° East 528 608 41,000  Level Chicago Center
11:47PM 41.8547 -92.9325 93° East 528 608 41,000  Level Chicago Center
11:48PM 41.8481 -92.7425 94° East 528 608 41,000  Level Chicago Center
11:49PM 41.8372 -92.5439 94° East 528 608 41,000  Level Chicago Center
11:50PM 41.8258 -92.3483 94° East 523 602 41,000  Level Chicago Center
11:51PM 41.8142 -92.1500 94° East 523 602 41,000  Level Chicago Center
11:52PM 41.8022 -91.9489 94° East 528 608 41,000  Level Chicago Center
11:53PM 41.7900 -91.7311 94° East 528 608 41,000  Level Chicago Center
11:54PM 41.7794 -91.5331 95° East 533 613 41,000  Level Chicago Center
11:55PM 41.7664 -91.3375 94° East 528 608 41,000  Level Chicago Center
11:56PM 41.7550 -91.1397 95° East 534 615 41,000  Level Chicago Center
11:57PM 41.7414 -90.9417 74° East 534 615 41,000  Level Chicago Center
11:58PM 41.7769 -90.7728 360° North 479 551 41,000  Level Chicago Center
11:59PM 41.8872 -90.7722 278° West 457 526 41,000  Level Chicago Center
12:00AM 41.9022 -90.9094 263° West 423 487 41,000  Level Chicago Center
12:01AM 41.8897 -91.0542 288° West 445 512 41,000  Level Chicago Center
12:02AM 41.9250 -91.1975 288° West 397 457 41,000  Level Chicago Center
12:03AM 41.9600 -91.3436 287° West 407 468 41,000  Level Chicago Center
12:04AM 41.9950 -91.4956 288° West 422 486 41,000  Level Chicago Center
12:05AM 42.0317 -91.6478 287° West 430 495 41,000  Level Chicago Center
12:06AM 42.0681 -91.8058 287° West 436 502 41,000  Level Chicago Center
12:07AM 42.1042 -91.9639 288° West 441 507 41,000  Level Chicago Center
12:08AM 42.1422 -92.1194 286° West 441 507 41,000  Level Chicago Center
12:09AM 42.1739 -92.2722 287° West 441 507 41,000  Level Chicago Center
12:10AM 42.2092 -92.4308 287° West 441 507 41,000  Level Chicago Center
12:12AM 42.2694 -92.6964 286° West 459 528 41,000  Level Minneapolis Center
12:13AM 42.3036 -92.8556 286° West 451 519 41,000  Level Minneapolis Center
12:14AM 42.3397 -93.0319 287° West 451 519 41,000  Level Minneapolis Center
12:15AM 42.3756 -93.1889 285° West 446 513 41,000  Level Minneapolis Center
12:16AM 42.4069 -93.3433 287° West 439 505 41,000  Level Minneapolis Center
12:17AM 42.4425 -93.5006 285° West 439 505 41,000  Level Minneapolis Center
12:18AM 42.4736 -93.6553 286° West 434 499 41,000  Level Minneapolis Center
12:19AM 42.5064 -93.8131 286° West 434 499 41,000  Level Minneapolis Center
12:20AM 42.5411 -93.9736 286° West 439 505 41,000  Level Minneapolis Center
12:21AM 42.5736 -94.1289 286° West 439 505 41,000  Level Minneapolis Center
12:22AM 42.6058 -94.2869 289° West 434 499 41,000  Level Minneapolis Center
12:23AM 42.6461 -94.4428 290° West 434 499 41,000  Level Minneapolis Center
12:24AM 42.6883 -94.5986 290° West 434 499 41,000  Level Minneapolis Center
12:25AM 42.7283 -94.7489 289° West 439 505 41,000  Level Minneapolis Center
12:26AM 42.7639 -94.8883 289° West 434 499 41,000  Level Minneapolis Center
12:27AM 42.8033 -95.0447 289° West 434 499 41,000  Level Minneapolis Center
12:28AM 42.8428 -95.1983 289° West 429 494 41,000  Level Minneapolis Center
12:29AM 42.8858 -95.3697 289° West 429 494 41,000  Level Minneapolis Center
12:30AM 42.9244 -95.5267 289° West 429 494 41,000  Level Minneapolis Center
12:31AM 42.9631 -95.6811 288° West 434 499 41,000  Level Minneapolis Center
12:32AM 42.9994 -95.8386 288° West 434 499 41,000  Level Minneapolis Center
12:33AM 43.0375 -95.9961 289° West 434 499 41,000  Level Minneapolis Center
12:34AM 43.0736 -96.1397 288° West 434 499 41,000  Level Minneapolis Center
12:35AM 43.1094 -96.2950 288° West 434 499 41,000  Level Minneapolis Center
12:36AM 43.1467 -96.4561 287° West 434 499 41,000  Level Minneapolis Center
12:37AM 43.1839 -96.6200 289° West 440 506 41,000  Level Minneapolis Center
12:38AM 43.2231 -96.7789 287° West 440 506 41,000  Level Minneapolis Center
12:39AM 43.2614 -96.9492 288° West 440 506 41,000  Level Minneapolis Center
12:40AM 43.2981 -97.1081 287° West 440 506 41,000  Level Minneapolis Center
12:41AM 43.3342 -97.2672 287° West 440 506 41,000  Level Minneapolis Center
12:42AM 43.3703 -97.4267 288° West 440 506 41,000  Level Minneapolis Center
12:43AM 43.4083 -97.5864 286° West 440 506 41,000  Level Minneapolis Center
12:44AM 43.4419 -97.7433 286° West 440 506 41,000  Level Minneapolis Center
12:45AM 43.4717 -97.8856 293° West 440 506 41,000  Level Minneapolis Center
12:46AM 43.5194 -98.0411 305° West 440 506 41,000  Level Minneapolis Center
12:47AM 43.5869 -98.1725 307° West 425 489 41,000  Level Minneapolis Center
12:48AM 43.6564 -98.3014 304° West 431 496 41,000  Level Minneapolis Center
12:49AM 43.7233 -98.4364 304° West 431 496 41,000  Level Minneapolis Center
12:50AM 43.7958 -98.5836 307° West 431 496 41,000  Level Minneapolis Center
12:51AM 43.8669 -98.7136 304° West 431 496 41,000  Level Minneapolis Center
12:52AM 43.9314 -98.8464 305° West 426 490 41,000  Level Minneapolis Center
12:53AM 43.9981 -98.9797 304° West 426 490 41,000  Level Minneapolis Center
12:54AM 44.0622 -99.1103 305° West 420 483 41,000  Level Minneapolis Center
12:55AM 44.1283 -99.2442 305° West 420 483 41,000  Level Minneapolis Center
12:56AM 44.1944 -99.3753 304° West 415 478 41,000  Level Minneapolis Center
12:57AM 44.2544 -99.5006 305° West 409 471 41,000  Level Minneapolis Center
12:58AM 44.3147 -99.6200 297° West 396 456 41,000  Level Minneapolis Center
12:59AM 44.3617 -99.7503 303° West 384 442 41,000  Level Minneapolis Center
01:00AM 44.4175 -99.8697 302° West 377 434 41,000  Level Minneapolis Center
01:01AM 44.4728 -99.9925 228° Southwest 377 434 41,000  Level Minneapolis Center
01:02AM 44.3972 -100.1092 158° South 313 360 41,000  Level Minneapolis Center
01:03AM 44.2681 -100.0361 144° Southeast 304 350 41,000  Level Minneapolis Center
01:04AM 44.1497 -99.9153 149° Southeast 400 460 41,000  Level Minneapolis Center
01:05AM 44.0203 -99.8083 149° Southeast 474 545 41,000  Level Minneapolis Center
01:06AM 43.8869 -99.6958 149° Southeast 525 604 41,000  Level Minneapolis Center
01:07AM 43.7533 -99.5864 150° Southeast 548 631 41,000  Level Minneapolis Center
01:08AM 43.6197 -99.4778 152° Southeast 555 639 41,000  Level Minneapolis Center
01:09AM 43.4853 -99.3781 151° Southeast 561 646 41,000  Level Minneapolis Center
01:10AM 43.3489 -99.2731 151° Southeast 561 646 41,000  Level Minneapolis Center
01:11AM 43.2125 -99.1711 153° Southeast 561 646 41,000  Level Minneapolis Center
01:12AM 43.0917 -99.0883 153° Southeast 561 646 41,000  Level Minneapolis Center
01:13AM 42.9528 -98.9900 158° South 561 646 41,000  Level Minneapolis Center
01:14AM 42.8108 -98.9119 160° South 561 646 41,000  Level Minneapolis Center
01:15AM 42.6767 -98.8458 162° South 538 619 41,000  Level Minneapolis Center
01:16AM 42.5458 -98.7892 129° Southeast 512 589 41,000  Level Minneapolis Center
01:17AM 42.4608 -98.6494 55° Northeast 470 541 41,000  Level Minneapolis Center
01:18AM 42.5275 -98.5197 25° Northeast 334 384 41,000  Level Minneapolis Center
01:19AM 42.6369 -98.4500 20° North 291 335 41,000  Level Minneapolis Center
01:20AM 42.7519 -98.3919 21° North 367 422 41,000  Level Minneapolis Center
01:21AM 42.8694 -98.3308 24° Northeast 396 456 41,000  Level Minneapolis Center
01:22AM 42.9828 -98.2606 20° North 429 494 41,000  Level Minneapolis Center
01:23AM 43.0894 -98.2067 20° North 437 503 41,000  Level Minneapolis Center
01:24AM 43.2067 -98.1478 20° North 449 517 41,000  Level Minneapolis Center
01:25AM 43.3281 -98.0861 22° Northeast 449 517 41,000  Level Minneapolis Center
01:26AM 43.4431 -98.0236 21° North 443 510 41,000  Level Minneapolis Center
01:27AM 43.5581 -97.9639 21° North 443 510 41,000  Level Minneapolis Center
01:28AM 43.6772 -97.9014 20° North 443 510 41,000  Level Minneapolis Center
01:29AM 43.8069 -97.8364 21° North 443 510 41,000  Level Minneapolis Center
01:30AM 43.9264 -97.7733 19° North 443 510 41,000  Level Minneapolis Center
01:31AM 44.0453 -97.7156 22° Northeast 443 510 41,000  Level Minneapolis Center
01:32AM 44.1603 -97.6517 22° Northeast 448 516 41,000  Level Minneapolis Center
01:33AM 44.2817 -97.5822 22° Northeast 454 522 41,000  Level Minneapolis Center
01:34AM 44.3881 -97.5231 25° Northeast 454 522 41,000  Level Minneapolis Center
01:35AM 44.5075 -97.4442 24° Northeast 459 528 41,000  Level Minneapolis Center
01:36AM 44.6292 -97.3681 25° Northeast 465 535 41,000  Level Minneapolis Center
01:37AM 44.7483 -97.2914 24° Northeast 465 535 41,000  Level Minneapolis Center
01:38AM 44.8656 -97.2175 19° North 470 541 41,000  Level Minneapolis Center
01:39AM 45.0011 -97.1500 357° North 470 541 41,000  Level Minneapolis Center
01:40AM 45.1261 -97.1583 355° North 446 513 41,000  Level Minneapolis Center
01:41AM 45.2506 -97.1753 355° North 446 513 41,000  Level Minneapolis Center
01:42AM 45.3792 -97.1897 343° North 446 513 41,000  Level Minneapolis Center
01:43AM 45.4983 -97.2422 340° North 446 513 41,000  Level Minneapolis Center
01:44AM 45.6131 -97.3006 340° North 441 507 41,000  Level Minneapolis Center
01:45AM 45.7156 -97.3553 342° North 441 507 41,000  Level Minneapolis Center
01:46AM 45.8325 -97.4083 340° North 441 507 41,000  Level Minneapolis Center
01:47AM 45.9594 -97.4742 340° North 436 502 41,000  Level Minneapolis Center
01:48AM 46.0719 -97.5333 340° North 431 496 41,000  Level Minneapolis Center
01:49AM 46.1886 -97.5931 342° North 431 496 41,000  Level Minneapolis Center
01:50AM 46.3053 -97.6469 341° North 436 502 41,000  Level Minneapolis Center
01:51AM 46.4200 -97.7039 339° North 436 502 41,000  Level Minneapolis Center
01:52AM 46.5364 -97.7675 342° North 436 502 41,000  Level Minneapolis Center
01:53AM 46.6511 -97.8219 340° North 436 502 41,000  Level Minneapolis Center
01:54AM 46.7675 -97.8831 340° North 436 502 41,000  Level Minneapolis Center
01:55AM 46.8839 -97.9442 339° North 436 502 41,000  Level Minneapolis Center
01:56AM 46.9942 -98.0053 329° Northwest 436 502 41,000  Level Minneapolis Center
01:57AM 47.0967 -98.0964 326° Northwest 431 496 41,000  Level Minneapolis Center
01:58AM 47.1969 -98.1969 325° Northwest 426 490 41,000  Level Minneapolis Center
01:59AM 47.2928 -98.2972 327° Northwest 426 490 41,000  Level Minneapolis Center
02:00AM 47.3947 -98.3956 327° Northwest 426 490 41,000  Level Minneapolis Center
02:01AM 47.4828 -98.4808 325° Northwest 426 490 41,000  Level Minneapolis Center
02:02AM 47.5825 -98.5825 335° Northwest 426 490 41,000  Level Minneapolis Center
02:03AM 47.6897 -98.6581 24° Northeast 420 483 41,000  Level Minneapolis Center
02:04AM 47.8056 -98.5828 51° Northeast 398 458 41,000  Level Minneapolis Center
02:05AM 47.8894 -98.4300 48° Northeast 406 467 41,000  Level Minneapolis Center
02:06AM 47.9817 -98.2742 49° Northeast 441 507 41,000  Level Minneapolis Center
02:08AM 48.1586 -97.9636 49° Northeast 488 562 41,000  Level Minneapolis Center
02:09AM 48.2481 -97.8092 49° Northeast 488 562 41,000  Level Minneapolis Center
02:10AM 48.3392 -97.6514 49° Northeast 488 562 41,000  Level Minneapolis Center
02:11AM 48.4281 -97.4958 49° Northeast 488 562 41,000  Level Minneapolis Center
02:12AM 48.5167 -97.3431 57° Northeast 483 556 41,000  Level Minneapolis Center
02:13AM 48.5911 -97.1667 62° Northeast 483 556 41,000  Level Minneapolis Center
02:14AM 48.6550 -96.9858 44° Northeast 488 562 41,000  Level Minneapolis Center
02:15AM 48.7400 -96.8594 320° Northwest 477 549 41,000  Level Minneapolis Center
02:16AM 48.8122 -96.9525 252° West 290 334 41,000  Level Minneapolis Center
02:17AM 48.7781 -97.1108 227° Southwest 213 245 41,000  Level Minneapolis Center
02:18AM 48.6947 -97.2464 238° Southwest 298 343 41,000  Level Minneapolis Center
02:19AM 48.6269 -97.4078 236° Southwest 370 426 41,000  Level Minneapolis Center
02:20AM 48.5547 -97.5686 235° Southwest 438 504 41,000  Level Minneapolis Center
02:21AM 48.4778 -97.7347 236° Southwest 472 543 41,000  Level Minneapolis Center
02:23AM 48.3275 -98.0689 235° Southwest 489 563 41,000  Level Minneapolis Center
02:24AM 48.2500 -98.2367 236° Southwest 489 563 41,000  Level Minneapolis Center
02:25AM 48.1742 -98.4042 234° Southwest 495 570 41,000  Level Minneapolis Center
02:26AM 48.0983 -98.5619 236° Southwest 485 558 41,000  Level Minneapolis Center
02:27AM 48.0267 -98.7194 236° Southwest 480 552 41,000  Level Minneapolis Center
02:28AM 47.9547 -98.8767 238° Southwest 469 540 41,000  Level Minneapolis Center
02:29AM 47.8867 -99.0369 240° Southwest 469 540 41,000  Level Minneapolis Center
02:30AM 47.8247 -99.1975 240° Southwest 455 524 41,000  Level Minneapolis Center
02:31AM 47.7578 -99.3664 240° Southwest 455 524 41,000  Level Minneapolis Center
02:32AM 47.6928 -99.5353 238° Southwest 466 536 41,000  Level Minneapolis Center
02:33AM 47.6208 -99.7089 239° Southwest 480 552 41,000  Level Minneapolis Center
02:34AM 47.5508 -99.8822 235° Southwest 489 563 41,000  Level Minneapolis Center
02:35AM 47.4747 -100.0453 224° Southwest 489 563 41,000  Level Minneapolis Center
02:36AM 47.3769 -100.1867 222° Southwest 494 568 41,000  Level Minneapolis Center
02:37AM 47.2728 -100.3236 224° Southwest 500 575 41,000  Level Minneapolis Center
02:38AM 47.1725 -100.4639 222° Southwest 505 581 41,000  Level Minneapolis Center
02:39AM 47.0681 -100.5997 223° Southwest 505 581 41,000  Level Minneapolis Center
02:40AM 46.9653 -100.7386 223° Southwest 510 587 41,000  Level Minneapolis Center
02:41AM 46.8625 -100.8767 223° Southwest 510 587 41,000  Level Minneapolis Center
02:42AM 46.7594 -101.0144 221° Southwest 510 587 41,000  Level Minneapolis Center
02:43AM 46.6589 -101.1428 223° Southwest 503 579 41,000  Level Minneapolis Center
02:44AM 46.5553 -101.2856 222° Southwest 503 579 41,000  Level Minneapolis Center
02:45AM 46.4497 -101.4214 223° Southwest 508 585 41,000  Level Minneapolis Center
02:46AM 46.3483 -101.5572 221° Southwest 514 592 41,000  Level Minneapolis Center
02:47AM 46.2378 -101.6975 223° Southwest 519 597 41,000  Level Minneapolis Center
02:48AM 46.1406 -101.8269 222° Southwest 503 579 41,000  Level Minneapolis Center
02:49AM 46.0342 -101.9636 219° Southwest 508 585 41,000  Level Minneapolis Center
02:50AM 45.9267 -102.0878 220° Southwest 508 585 41,000  Level Minneapolis Center
02:51AM 45.8067 -102.2333 220° Southwest 508 585 41,000  Level Minneapolis Center
02:52AM 45.6983 -102.3653 220° Southwest 508 585 41,000  Level Minneapolis Center
02:53AM 45.5875 -102.4961 220° Southwest 508 585 41,000  Level Minneapolis Center
02:54AM 45.5436 -102.5486 360° North 508 585 41,000  Level Minneapolis Center
02:55AM 45.5436 -102.5486 360° North 508 585 41,000  Level Minneapolis Center
02:56AM 45.5436 -102.5486 360° North 508 585 41,000  Level Minneapolis Center
02:57AM 45.5436 -102.5486 216° Southwest 508 585 41,000  Level Minneapolis Center
02:58AM 45.0189 -103.0892 218° Southwest 513 590 41,000  Level Denver Center
02:59AM 44.9058 -103.2125 219° Southwest 513 590 41,000  Level Denver Center
03:00AM 44.7989 -103.3353 216° Southwest 513 590 41,000  Level Denver Center
03:01AM 44.6814 -103.4550 215° Southwest 513 590 41,000  Level Denver Center
03:02AM 44.5675 -103.5686 218° Southwest 513 590 41,000  Level Denver Center
03:03AM 44.4642 -103.6811 217° Southwest 520 598 41,000  Level Denver Center
03:04AM 44.3503 -103.8022 217° Southwest 520 598 41,000  Level Denver Center
03:05AM 44.2242 -103.9353 218° Southwest 520 598 41,000  Level Denver Center
03:06AM 44.1122 -104.0556 216° Southwest 525 604 41,000  Level Denver Center
03:07AM 44.0061 -104.1633 217° Southwest 525 604 41,000  Level Denver Center
03:08AM 43.8917 -104.2828 216° Southwest 525 604 41,000  Level Denver Center
03:09AM 43.7650 -104.4111 217° Southwest 525 604 41,000  Level Denver Center
03:10AM 43.6522 -104.5294 217° Southwest 520 598 41,000 120 Level Denver Center
03:11AM 43.5519 -104.6328 217° Southwest 513 590 41,300 480 Climbing Denver Center
03:12AM 43.4392 -104.7503 216° Southwest 513 590 42,000 420 Climbing Denver Center
03:15AM 43.1000 -105.0894 217° Southwest 513 590 43,000 240 Climbing Denver Center
03:16AM 42.9742 -105.2169 216° Southwest 513 590 43,000  Level Denver Center
03:17AM 42.8586 -105.3297 211° Southwest 513 590 43,000  Level Denver Center
03:18AM 42.7450 -105.4222 206° Southwest 519 597 43,000  Level Denver Center
03:19AM 42.6125 -105.5117 205° Southwest 529 609 43,000  Level Denver Center
03:20AM 42.4694 -105.6039 207° Southwest 529 609 43,000  Level Denver Center
03:21AM 42.3386 -105.6928 205° Southwest 529 609 43,000  Level Denver Center
03:22AM 42.2183 -105.7672 206° Southwest 529 609 43,000  Level Denver Center
03:23AM 42.0708 -105.8639 206° Southwest 529 609 43,000  Level Denver Center
03:24AM 41.9358 -105.9517 202° Southwest 529 609 43,000  Level Denver Center
03:25AM 41.7986 -106.0250 195° South 529 609 43,000  Level Denver Center
03:26AM 41.6675 -106.0733 194° South 541 623 43,000  Level Denver Center
03:27AM 41.5069 -106.1269 195° South 541 623 43,000  Level Denver Center
03:28AM 41.3656 -106.1775 194° South 547 629 43,000  Level Denver Center
03:29AM 41.2383 -106.2194 195° South 532 612 43,000  Level Denver Center
03:30AM 41.0989 -106.2694 191° South 526 605 43,000  Level Denver Center
03:31AM 40.9383 -106.3111 177° South 537 618 43,000  Level Denver Center
03:32AM 40.7903 -106.3006 177° South 545 627 43,000  Level Denver Center
03:33AM 40.6569 -106.2900 176° South 545 627 43,000  Level Denver Center
03:34AM 40.4922 -106.2742 163° South 545 627 43,000  Level Denver Center
03:35AM 40.3461 -106.2144 156° South 545 627 43,000  Level Denver Center
03:36AM 40.2167 -106.1389 154° Southeast 547 629 43,000  Level Denver Center
03:37AM 40.0767 -106.0500 135° Southeast 554 638 43,000  Level Denver Center
03:38AM 39.9697 -105.9097 111° Southeast 560 644 43,000  Level Denver Center
03:39AM 39.9164 -105.7261 111° Southeast 536 617 43,000  Level Denver Center
03:40AM 39.8631 -105.5428 111° Southeast 541 623 43,000  Level Denver Center
03:41AM 39.8072 -105.3542 92° East 551 634 43,000  Level Denver Center
03:42AM 39.8008 -105.1489 76° East 532 612 43,000  Level Denver Center
03:43AM 39.8342 -104.9697 76° East 505 581 43,000  Level Denver Center
03:44AM 39.8672 -104.7931 78° East 505 581 43,000  Level Denver Center
03:45AM 39.8956 -104.6139 76° East 505 581 43,000  Level Denver Center
03:46AM 39.9264 -104.4533 61° Northeast 510 587 43,000  Level Denver Center
03:51AM 40.2590 -103.6570 46° Northeast 459 528 43,000  Level FlightAware ADS-B
03:51AM 40.3039 -103.5970 45° Northeast 460 529 43,000  Level FlightAware ADS-B
03:52AM 40.3504 -103.5350 45° Northeast 462 532 43,000  Level FlightAware ADS-B
03:52AM 40.3954 -103.4750 46° Northeast 462 532 43,000  Level FlightAware ADS-B
03:53AM 40.4402 -103.4150 46° Northeast 463 533 43,000  Level FlightAware ADS-B
03:53AM 40.4854 -103.3540 46° Northeast 464 534 43,000  Level FlightAware ADS-B
03:54AM 40.5307 -103.2930 46° Northeast 462 532 43,000  Level FlightAware ADS-B
03:54AM 40.5753 -103.2330 46° Northeast 461 531 43,000  Level FlightAware ADS-B
03:55AM 40.6201 -103.1720 46° Northeast 460 529 43,000  Level FlightAware ADS-B
03:55AM 40.6653 -103.1110 46° Northeast 460 529 43,000  Level FlightAware ADS-B
03:56AM 40.7103 -103.0500 46° Northeast 460 529 43,000  Level FlightAware ADS-B
03:56AM 40.7550 -102.9890 46° Northeast 461 531 43,000  Level FlightAware ADS-B
03:57AM 40.8018 -102.9260 35° Northeast 461 531 43,000  Level FlightAware ADS-B
03:57AM 40.8306 -102.8990 12° North 431 496 43,000  Level FlightAware ADS-B
03:58AM 40.8655 -102.8890 353° North 403 464 43,000  Level FlightAware ADS-B
03:58AM 40.8943 -102.8940 330° Northwest 391 450 43,000  Level FlightAware ADS-B
03:58AM 40.9206 -102.9140 307° West 387 445 43,000  Level FlightAware ADS-B
03:58AM 40.9397 -102.9470 287° West 395 455 43,000  Level FlightAware ADS-B
03:59AM 40.9518 -102.9980 274° West 409 471 43,000  Level FlightAware ADS-B
03:59AM 40.9543 -103.0430 258° West 428 493 43,000  Level FlightAware ADS-B
03:59AM 40.9466 -103.0890 239° Southwest 450 518 43,000  Level FlightAware ADS-B
04:00AM 40.9112 -103.1680 237° Southwest 471 542 43,000  Level FlightAware ADS-B
04:00AM 40.8754 -103.2420 237° Southwest 475 547 43,000  Level FlightAware ADS-B
04:01AM 40.8382 -103.3180 237° Southwest 478 550 43,000  Level FlightAware ADS-B
04:01AM 40.8018 -103.3910 237° Southwest 481 554 43,000  Level FlightAware ADS-B
04:02AM 40.7651 -103.4650 237° Southwest 483 556 43,000  Level FlightAware ADS-B
04:02AM 40.7273 -103.5420 237° Southwest 484 557 43,000  Level FlightAware ADS-B
04:03AM 40.6901 -103.6170 237° Southwest 485 558 43,000  Level FlightAware ADS-B
04:04AM 40.6535 -103.6910 237° Southwest 487 560 43,000  Level FlightAware ADS-B
04:04AM 40.6164 -103.7660 237° Southwest 487 560 43,000  Level FlightAware ADS-B
04:04AM 40.5823 -103.8350 237° Southwest 487 560 43,000  Level FlightAware ADS-B
04:05AM 40.5639 -103.8720 237° Southwest 486 559 43,000  Level FlightAware ADS-B
04:05AM 40.5308 -103.9380 246° West 485 558 43,000  Level FlightAware ADS-B
04:05AM 40.5133 -103.9900 263° West 460 529 43,000  Level FlightAware ADS-B
04:06AM 40.5085 -104.0400 279° West 440 506 43,000  Level FlightAware ADS-B
04:06AM 40.5215 -104.1450 281° West 429 494 43,000  Level FlightAware ADS-B
04:07AM 40.5326 -104.2220 281° West 429 494 43,000  Level FlightAware ADS-B
04:07AM 40.5438 -104.2980 281° West 430 495 43,000  Level FlightAware ADS-B
04:08AM 40.5550 -104.3760 281° West 428 493 43,000  Level FlightAware ADS-B
04:08AM 40.5662 -104.4530 281° West 429 494 43,000  Level FlightAware ADS-B
04:09AM 40.5774 -104.5310 281° West 430 495 43,000  Level FlightAware ADS-B
04:10AM 40.5888 -104.6100 281° West 430 495 43,000  Level FlightAware ADS-B
04:10AM 40.5999 -104.6880 281° West 429 494 43,000  Level FlightAware ADS-B
04:11AM 40.6113 -104.7690 280° West 429 494 43,000  Level FlightAware ADS-B
04:11AM 40.6222 -104.8470 281° West 430 495 43,000  Level FlightAware ADS-B
04:12AM 40.6332 -104.9250 280° West 430 495 43,000  Level FlightAware ADS-B
04:12AM 40.6442 -105.0040 281° West 430 495 43,000  Level FlightAware ADS-B
04:12AM 40.6494 -105.0410 292° West 429 494 43,000  Level FlightAware ADS-B
04:13AM 40.6625 -105.0840 311° West 412 474 43,000  Level FlightAware ADS-B
04:13AM 40.6838 -105.1160 329° Northwest 404 465 43,000  Level FlightAware ADS-B
04:13AM 40.7149 -105.1410 348° North 402 463 43,000  Level FlightAware ADS-B
04:14AM 40.7462 -105.1500 North 408 470 43,000  Level FlightAware ADS-B
04:14AM 40.8231 -105.1390 North 415 478 43,000  Level FlightAware ADS-B
04:15AM 40.8802 -105.1300 North 414 476 43,000  Level FlightAware ADS-B
04:15AM 40.9368 -105.1190 North 411 473 43,000  Level FlightAware ADS-B
04:16AM 40.9951 -105.1090 North 410 472 43,000  Level FlightAware ADS-B
04:16AM 41.0521 -105.0990 North 410 472 43,000  Level FlightAware ADS-B
04:17AM 41.1100 -105.0890 North 410 472 43,000  Level FlightAware ADS-B
04:17AM 41.1667 -105.0790 North 411 473 43,000  Level FlightAware ADS-B
04:18AM 41.2239 -105.0690 North 411 473 43,000  Level FlightAware ADS-B
04:18AM 41.2809 -105.0590 North 412 474 43,000  Level FlightAware ADS-B
04:19AM 41.3390 -105.0480 North 413 475 43,000  Level FlightAware ADS-B
04:19AM 41.4083 -105.0360 North 414 476 43,000  Level FlightAware ADS-B
04:20AM 41.4655 -105.0260 North 414 476 43,000  Level FlightAware ADS-B
04:20AM 41.5123 -105.0160 14° North 415 478 43,000  Level FlightAware ADS-B
04:21AM 41.5415 -105.0060 17° North 418 481 43,000  Level FlightAware ADS-B
04:21AM 41.5974 -104.9830 17° North 420 483 43,000  Level FlightAware ADS-B
04:22AM 41.6538 -104.9600 17° North 420 483 43,000  Level FlightAware ADS-B
04:22AM 41.7101 -104.9370 18° North 421 484 43,000  Level FlightAware ADS-B
04:23AM 41.7666 -104.9130 17° North 421 484 43,000  Level FlightAware ADS-B
04:23AM 41.8221 -104.8900 18° North 420 483 43,000  Level FlightAware ADS-B
04:24AM 41.8775 -104.8660 17° North 418 481 43,000  Level FlightAware ADS-B
04:24AM 41.9334 -104.8430 17° North 420 483 43,000  Level FlightAware ADS-B
04:25AM 41.9905 -104.8200 18° North 421 484 43,000  Level FlightAware ADS-B
04:25AM 42.0466 -104.7960 17° North 422 486 43,000  Level FlightAware ADS-B
04:26AM 42.1034 -104.7720 17° North 425 489 43,000  Level FlightAware ADS-B
04:26AM 42.1599 -104.7480 17° North 424 488 43,000  Level FlightAware ADS-B
04:27AM 42.2094 -104.7270 20° North 425 489 43,000  Level FlightAware ADS-B
04:27AM 42.2650 -104.7000 22° Northeast 428 493 43,000  Level FlightAware ADS-B
04:28AM 42.3227 -104.6680 22° Northeast 430 495 43,000  Level FlightAware ADS-B
04:28AM 42.3783 -104.6380 23° Northeast 431 496 43,000  Level FlightAware ADS-B
04:29AM 42.4372 -104.6040 22° Northeast 432 497 43,000  Level FlightAware ADS-B
04:29AM 42.4934 -104.5730 22° Northeast 433 498 43,000  Level FlightAware ADS-B
04:30AM 42.5494 -104.5420 22° Northeast 434 499 43,000  Level FlightAware ADS-B
04:30AM 42.6064 -104.5100 23° Northeast 434 499 43,000  Level FlightAware ADS-B
04:31AM 42.6622 -104.4780 22° Northeast 435 501 43,000  Level FlightAware ADS-B
04:31AM 42.7190 -104.4460 22° Northeast 436 502 43,000  Level FlightAware ADS-B
04:32AM 42.7749 -104.4150 23° Northeast 436 502 43,000  Level FlightAware ADS-B
04:33AM 42.8838 -104.3530 23° Northeast 438 504 43,000  Level FlightAware ADS-B
04:33AM 42.9402 -104.3210 22° Northeast 439 505 43,000  Level FlightAware ADS-B
04:34AM 42.9971 -104.2890 23° Northeast 439 505 43,000  Level FlightAware ADS-B
04:36AM 43.2295 -104.1560 23° Northeast 442 509 43,000  Level FlightAware ADS-B
04:36AM 43.2868 -104.1230 24° Northeast 441 507 43,000  Level FlightAware ADS-B
04:38AM 43.5014 -103.9930 35° Northeast 447 514 43,000  Level FlightAware ADS-B
04:39AM 43.5436 -103.9517 39° Northeast 435 501 43,000  Level Denver Center
04:40AM 43.6533 -103.8294 39° Northeast 450 518 43,000  Level Denver Center
04:41AM 43.7486 -103.7219 40° Northeast 450 518 43,000  Level Denver Center
04:42AM 43.8358 -103.6203 39° Northeast 455 524 43,000  Level Denver Center
04:43AM 43.9331 -103.5122 40° Northeast 455 524 43,000  Level Denver Center
04:44AM 44.0403 -103.3886 40° Northeast 455 524 43,000  Level Denver Center
04:45AM 44.1372 -103.2739 38° Northeast 455 524 43,000  Level Denver Center
04:46AM 44.2142 -103.1889 40° Northeast 455 524 43,000  Level Denver Center
04:47AM 44.3189 -103.0672 38° Northeast 450 518 43,000  Level Denver Center
04:48AM 44.4197 -102.9569 41° Northeast 450 518 43,000  Level Denver Center
04:49AM 44.5142 -102.8408 40° Northeast 455 524 43,000  Level Denver Center
04:51AM 44.7500 -102.5647 40° Northeast 461 531 43,000  Level Minneapolis Center
04:52AM 44.8450 -102.4508 40° Northeast 456 525 43,000  Level Minneapolis Center
04:53AM 44.9464 -102.3317 41° Northeast 456 525 43,000  Level Minneapolis Center
04:54AM 45.0436 -102.2114 39° Northeast 456 525 43,000  Level Minneapolis Center
04:55AM 45.1447 -102.0942 41° Northeast 461 531 43,000  Level Minneapolis Center
04:56AM 45.2414 -101.9761 41° Northeast 461 531 43,000  Level Minneapolis Center
04:57AM 45.3428 -101.8522 41° Northeast 461 531 43,000  Level Minneapolis Center
04:58AM 45.4417 -101.7306 40° Northeast 466 536 43,000  Level Minneapolis Center
04:59AM 45.5422 -101.6089 41° Northeast 471 542 43,000  Level Minneapolis Center
05:00AM 45.6433 -101.4839 40° Northeast 477 549 43,000  Level Minneapolis Center
05:01AM 45.7439 -101.3611 41° Northeast 477 549 43,000  Level Minneapolis Center
05:02AM 45.8442 -101.2381 42° Northeast 477 549 43,000  Level Minneapolis Center
05:03AM 45.9428 -101.1114 41° Northeast 477 549 43,000  Level Minneapolis Center
05:04AM 46.0453 -100.9847 41° Northeast 477 549 43,000  Level Minneapolis Center
05:05AM 46.1386 -100.8656 41° Northeast 472 543 43,000  Level Minneapolis Center
05:06AM 46.2389 -100.7378 42° Northeast 472 543 43,000  Level Minneapolis Center
05:07AM 46.3414 -100.6036 40° Northeast 480 552 43,000  Level Minneapolis Center
05:08AM 46.4431 -100.4781 41° Northeast 480 552 43,000  Level Minneapolis Center
05:09AM 46.5314 -100.3656 42° Northeast 475 547 43,000  Level Minneapolis Center
05:10AM 46.6333 -100.2303 40° Northeast 475 547 43,000  Level Minneapolis Center
05:11AM 46.7369 -100.1036 43° Northeast 475 547 43,000  Level Minneapolis Center
05:12AM 46.8342 -99.9728 43° Northeast 475 547 43,000  Level Minneapolis Center
05:13AM 46.9314 -99.8414 41° Northeast 475 547 43,000  Level Minneapolis Center
05:14AM 47.0706 -99.6625 44° Northeast 455 524 43,000  Level Minneapolis Center
05:15AM 47.1653 -99.5300 42° Northeast 466 536 43,000  Level Minneapolis Center
05:16AM 47.2639 -99.4003 52° Northeast 471 542 43,000  Level Minneapolis Center
05:17AM 47.3447 -99.2467 97° East 471 542 43,000  Level Minneapolis Center
05:18AM 47.3281 -99.0364 142° Southeast 461 531 43,000  Level Minneapolis Center
05:19AM 47.2033 -98.8947 153° Southeast 436 502 43,000  Level Minneapolis Center
05:20AM 47.0483 -98.7783 151° Southeast 486 559 43,000  Level Minneapolis Center
05:21AM 46.9136 -98.6678 151° Southeast 519 597 43,000  Level Minneapolis Center
05:22AM 46.7808 -98.5608 151° Southeast 538 619 43,000  Level Minneapolis Center
05:23AM 46.6439 -98.4508 151° Southeast 554 638 43,000  Level Minneapolis Center
05:24AM 46.5108 -98.3450 151° Southeast 560 644 43,000  Level Minneapolis Center
05:25AM 46.3758 -98.2367 151° Southeast 555 639 43,000  Level Minneapolis Center
05:26AM 46.2425 -98.1317 156° South 555 639 43,000  Level Minneapolis Center
05:27AM 46.1044 -98.0419 163° South 545 627 43,000  Level Minneapolis Center
05:28AM 45.9592 -97.9761 162° South 545 627 43,000  Level Minneapolis Center
05:29AM 45.8158 -97.9108 162° South 540 621 43,000  Level Minneapolis Center
05:30AM 45.6725 -97.8458 162° South 540 621 43,000  Level Minneapolis Center
05:31AM 45.5311 -97.7811 161° South 540 621 43,000  Level Minneapolis Center
05:32AM 45.3878 -97.7108 173° South 540 621 43,000  Level Minneapolis Center
05:33AM 45.2408 -97.6850 179° South 528 608 43,000  Level Minneapolis Center
05:34AM 45.0950 -97.6828 182° South 528 608 43,000  Level Minneapolis Center
05:35AM 44.9675 -97.6881 204° Southwest 528 608 43,000  Level Minneapolis Center
05:36AM 44.8394 -97.7692 206° Southwest 505 581 43,000  Level Minneapolis Center
05:37AM 44.7150 -97.8564 205° Southwest 505 581 43,000  Level Minneapolis Center
05:38AM 44.5911 -97.9372 207° Southwest 499 574 43,000  Level Minneapolis Center
05:39AM 44.4686 -98.0236 205° Southwest 499 574 43,000  Level Minneapolis Center
05:40AM 44.3400 -98.1092 205° Southwest 505 581 43,000  Level Minneapolis Center
05:41AM 44.2114 -98.1917 207° Southwest 505 581 43,000  Level Minneapolis Center
05:42AM 44.0889 -98.2769 207° Southwest 505 581 43,000  Level Minneapolis Center
05:43AM 43.9533 -98.3725 211° Southwest 505 581 43,000  Level Minneapolis Center
05:44AM 43.8344 -98.4717 211° Southwest 505 581 43,000  Level Minneapolis Center
05:45AM 43.7153 -98.5708 212° Southwest 505 581 43,000  Level Minneapolis Center
05:46AM 43.5958 -98.6722 210° Southwest 512 589 43,000  Level Minneapolis Center
05:47AM 43.4744 -98.7700 216° Southwest 512 589 43,000  Level Minneapolis Center
05:48AM 43.3583 -98.8853 225° Southwest 512 589 43,000  Level Minneapolis Center
05:49AM 43.2644 -99.0136 225° Southwest 498 573 43,000  Level Minneapolis Center
05:53AM 42.9469 -99.4472 227° Southwest 481 554 43,000  Level Denver Center
05:54AM 42.8531 -99.5853 227° Southwest 481 554 43,000  Level Denver Center
05:55AM 42.7608 -99.7197 226° Southwest 486 559 43,000  Level Denver Center
05:56AM 42.6664 -99.8542 227° Southwest 486 559 43,000  Level Denver Center
05:57AM 42.5756 -99.9850 237° Southwest 486 559 43,000  Level Denver Center
05:58AM 42.5006 -100.1392 237° Southwest 492 566 43,000  Level Denver Center
05:59AM 42.4275 -100.2900 236° Southwest 487 560 43,000  Level Denver Center
06:00AM 42.3558 -100.4347 244° Southwest 482 555 43,000  Level Denver Center
06:05AM 42.0506 -101.2670 270° West 431 496 43,000  Level FlightAware ADS-B
06:06AM 42.0507 -101.3470 270° West 432 497 43,000  Level FlightAware ADS-B
06:06AM 42.0508 -101.4290 270° West 434 499 43,000  Level FlightAware ADS-B
06:07AM 42.0508 -101.5160 270° West 435 501 43,000  Level FlightAware ADS-B
06:07AM 42.0507 -101.5990 270° West 435 501 43,000  Level FlightAware ADS-B
06:08AM 42.0506 -101.6800 270° West 434 499 43,000  Level FlightAware ADS-B
06:08AM 42.0504 -101.7610 270° West 433 498 43,000  Level FlightAware ADS-B
06:09AM 42.0503 -101.8420 270° West 433 498 43,000  Level FlightAware ADS-B
06:09AM 42.0500 -101.9230 270° West 434 499 43,000  Level FlightAware ADS-B
06:10AM 42.0496 -102.0070 270° West 433 498 43,000  Level FlightAware ADS-B
06:10AM 42.0492 -102.0890 270° West 432 497 43,000  Level FlightAware ADS-B
06:11AM 42.0488 -102.1700 270° West 431 496 43,000  Level FlightAware ADS-B
06:11AM 42.0483 -102.2510 269° West 431 496 43,000  Level FlightAware ADS-B
06:12AM 42.0477 -102.3320 269° West 432 497 43,000  Level FlightAware ADS-B
06:12AM 42.0471 -102.4130 269° West 432 497 43,000  Level FlightAware ADS-B
06:13AM 42.0461 -102.5250 269° West 432 497 43,000  Level FlightAware ADS-B
06:13AM 42.0453 -102.6110 269° West 432 497 43,000  Level FlightAware ADS-B
06:14AM 42.0444 -102.6930 270° West 431 496 43,000  Level FlightAware ADS-B
06:14AM 42.0440 -102.7530 277° West 428 493 43,000  Level FlightAware ADS-B
06:15AM 42.0478 -102.7930 287° West 417 480 43,000  Level FlightAware ADS-B
06:15AM 42.0568 -102.8320 297° West 409 471 43,000  Level FlightAware ADS-B
06:15AM 42.0885 -102.9160 297° West 406 467 43,000  Level FlightAware ADS-B
06:16AM 42.1145 -102.9840 298° West 407 468 43,000  Level FlightAware ADS-B
06:16AM 42.1409 -103.0520 297° West 407 468 43,000  Level FlightAware ADS-B
06:17AM 42.1670 -103.1200 297° West 407 468 43,000  Level FlightAware ADS-B
06:17AM 42.1932 -103.1880 297° West 407 468 43,000  Level FlightAware ADS-B
06:18AM 42.2193 -103.2560 297° West 407 468 43,000  Level FlightAware ADS-B
06:18AM 42.2464 -103.3270 297° West 408 470 43,000  Level FlightAware ADS-B
06:19AM 42.2789 -103.4130 297° West 408 470 43,000  Level FlightAware ADS-B
06:20AM 42.3063 -103.4850 297° West 408 470 43,000  Level FlightAware ADS-B
06:20AM 42.3392 -103.5720 297° West 409 471 43,000  Level FlightAware ADS-B
06:21AM 42.3676 -103.6470 297° West 408 470 43,000  Level FlightAware ADS-B
06:21AM 42.3951 -103.7190 297° West 408 470 43,000  Level FlightAware ADS-B
06:22AM 42.4215 -103.7900 297° West 408 470 43,000  Level FlightAware ADS-B
06:22AM 42.4482 -103.8610 297° West 408 470 43,000  Level FlightAware ADS-B
06:23AM 42.4745 -103.9320 297° West 407 468 43,000  Level FlightAware ADS-B
06:23AM 42.4875 -103.9660 303° West 405 466 43,000  Level FlightAware ADS-B
06:24AM 42.5128 -104.0190 310° West 401 461 43,000  Level FlightAware ADS-B
06:24AM 42.5557 -104.0880 310° West 399 459 43,000  Level FlightAware ADS-B
06:25AM 42.6040 -104.1660 310° West 399 459 43,000  Level FlightAware ADS-B
06:26AM 42.6510 -104.2410 310° West 399 459 43,000  Level FlightAware ADS-B
06:26AM 42.6867 -104.2980 310° West 398 458 43,000  Level FlightAware ADS-B
06:27AM 42.7230 -104.3570 313° West 397 457 43,000  Level FlightAware ADS-B
06:27AM 42.7538 -104.4020 320° Northwest 396 456 43,000  Level FlightAware ADS-B
06:28AM 42.8357 -104.4950 321° Northwest 395 455 43,000  Level FlightAware ADS-B
06:29AM 42.9084 -104.5760 322° Northwest 392 451 43,000  Level FlightAware ADS-B
06:30AM 42.9794 -104.6522 321° Northwest 392 451 43,000  Level Denver Center
06:31AM 43.0556 -104.7381 321° Northwest 387 445 43,000  Level Denver Center
06:32AM 43.1383 -104.8297 321° Northwest 387 445 43,000  Level Denver Center
06:33AM 43.2314 -104.9328 320° Northwest 387 445 43,000  Level Denver Center
06:34AM 43.3136 -105.0278 321° Northwest 387 445 43,000  Level Denver Center
06:35AM 43.3878 -105.1117 320° Northwest 387 445 43,000  Level Denver Center
06:36AM 43.4700 -105.2069 320° Northwest 382 440 43,000  Level Denver Center
06:37AM 43.5606 -105.3111 322° Northwest 388 447 43,000  Level Denver Center
06:38AM 43.6447 -105.4014 322° Northwest 388 447 43,000  Level Denver Center
06:39AM 43.7183 -105.4806 321° Northwest 381 438 43,000  Level Denver Center
06:40AM 43.8022 -105.5739 322° Northwest 386 444 43,000  Level Denver Center
06:41AM 43.8925 -105.6733 322° Northwest 386 444 43,000  Level Denver Center
06:42AM 43.9764 -105.7647 322° Northwest 386 444 43,000  Level Denver Center
06:43AM 44.0519 -105.8475 346° North 386 444 43,000  Level Denver Center
06:44AM 44.1686 -105.8867 354° North 378 435 43,000  Level Denver Center
06:45AM 44.2750 -105.9031 352° North 395 455 43,000  Level Denver Center
06:46AM 44.3853 -105.9253 354° North 400 460 43,000  Level Denver Center
06:47AM 44.4936 -105.9419 353° North 400 460 43,000  Level Denver Center
06:48AM 44.6042 -105.9614 354° North 395 455 43,000  Level Denver Center
06:48AM 44.6292 -105.9653 North 403 464 43,000  Level Salt Lake Center
06:49AM 44.7408 -105.9522 North 418 481 43,000  Level Salt Lake Center
06:50AM 44.8444 -105.9450 North 410 472 43,000  Level Salt Lake Center
06:51AM 44.9725 -105.9328 North 413 475 43,000  Level Salt Lake Center
06:52AM 45.0828 -105.9231 North 413 475 43,000  Level Salt Lake Center
06:53AM 45.1919 -105.9119 North 412 474 43,000  Level Salt Lake Center
06:54AM 45.3214 -105.9003 North 416 479 43,000  Level Salt Lake Center
06:55AM 45.4319 -105.8903 North 416 479 43,000  Level Salt Lake Center
06:56AM 45.5422 -105.8800 North 416 479 43,000  Level Salt Lake Center
06:57AM 45.6717 -105.8669 North 417 480 43,000  Level Salt Lake Center
06:58AM 45.7825 -105.8567 20° North 417 480 43,000  Level Salt Lake Center
06:59AM 45.8914 -105.8008 37° Northeast 446 513 43,000  Level Salt Lake Center
07:00AM 45.9911 -105.6939 35° Northeast 467 537 43,000  Level Salt Lake Center
07:01AM 46.1103 -105.5722 36° Northeast 470 541 43,000  Level Salt Lake Center
07:02AM 46.2131 -105.4658 35° Northeast 474 545 43,000  Level Salt Lake Center
07:03AM 46.3161 -105.3594 36° Northeast 475 547 43,000  Level Salt Lake Center
07:04AM 46.4344 -105.2342 36° Northeast 473 544 43,000  Level Salt Lake Center
07:05AM 46.5342 -105.1294 36° Northeast 467 537 43,000  Level Salt Lake Center
07:06AM 46.6258 -105.0317 36° Northeast 463 533 43,000  Level Salt Lake Center
07:07AM 46.7286 -104.9219 36° Northeast 460 529 43,000  Level Salt Lake Center
07:08AM 46.8314 -104.8119 37° Northeast 459 528 43,000  Level Salt Lake Center
07:09AM 46.9339 -104.7003 36° Northeast 460 529 43,000  Level Salt Lake Center
07:10AM 47.0381 -104.5881 37° Northeast 463 533 43,000  Level Salt Lake Center
07:11AM 47.1414 -104.4722 41° Northeast 466 536 43,000  Level Salt Lake Center
07:12AM 47.2417 -104.3442 42° Northeast 471 542 43,000  Level Salt Lake Center
07:13AM 47.3408 -104.2119 42° Northeast 478 550 43,000  Level Salt Lake Center
07:14AM 47.4403 -104.0814 51° Northeast 479 551 43,000  Level Salt Lake Center
07:15AM 47.5256 -103.9236 65° Northeast 496 571 43,000  Level Salt Lake Center
07:16AM 47.5886 -103.7192 65° Northeast 508 585 43,000  Level Salt Lake Center
07:17AM 47.6539 -103.5114 65° Northeast 514 592 43,000  Level Salt Lake Center
07:18AM 47.7136 -103.3203 65° Northeast 516 594 43,000  Level Salt Lake Center
07:19AM 47.7744 -103.1283 66° East 517 595 43,000  Level Salt Lake Center
07:20AM 47.8336 -102.9336 73° East 518 596 43,000  Level Salt Lake Center
07:21AM 47.8769 -102.7222 76° East 530 610 43,000  Level Salt Lake Center
07:22AM 47.9131 -102.5078 75° East 537 618 43,000  Level Salt Lake Center
07:23AM 47.9511 -102.2936 76° East 538 619 43,000  Level Salt Lake Center
07:24AM 47.9872 -102.0822 86° East 534 615 43,000  Level Salt Lake Center
07:25AM 47.9936 -101.9422 100° East 494 568 43,000  Level Minneapolis Center
07:26AM 47.9661 -101.7169 97° East 533 613 43,000  Level Minneapolis Center
07:27AM 47.9483 -101.4967 101° East 533 613 43,000  Level Minneapolis Center
07:28AM 47.9197 -101.2747 100° East 538 619 43,000  Level Minneapolis Center
07:29AM 47.8947 -101.0539 96° East 538 619 43,000  Level Minneapolis Center
07:30AM 47.8800 -100.8625 100° East 524 603 43,000  Level Minneapolis Center
07:31AM 47.8542 -100.6447 100° East 524 603 43,000  Level Minneapolis Center
07:32AM 47.8278 -100.4306 101° East 529 609 43,000  Level Minneapolis Center
07:33AM 47.8006 -100.2194 102° East 529 609 43,000  Level Minneapolis Center
07:34AM 47.7711 -100.0083 99° East 529 609 43,000  Level Minneapolis Center
07:35AM 47.7478 -99.7889 102° East 529 609 43,000  Level Minneapolis Center
07:36AM 47.7178 -99.5753 100° East 534 615 43,000  Level Minneapolis Center
07:37AM 47.6933 -99.3622 83° East 529 609 43,000  Level Minneapolis Center
07:38AM 47.7092 -99.1694 41° Northeast 493 567 43,000  Level Minneapolis Center
07:39AM 47.8006 -99.0525 354° North 430 495 43,000  Level Minneapolis Center
07:40AM 47.9061 -99.0700 301° West 340 391 43,000  Level Minneapolis Center
07:41AM 47.9653 -99.2192 290° West 486 559 43,000  Level Minneapolis Center
07:42AM 48.0050 -99.3853 287° West 462 532 43,000  Level Minneapolis Center
07:43AM 48.0417 -99.5603 288° West 450 518 43,000  Level Minneapolis Center
07:44AM 48.0803 -99.7361 289° West 445 512 43,000  Level Minneapolis Center
07:45AM 48.1189 -99.9089 288° West 445 512 43,000  Level Minneapolis Center
07:46AM 48.1567 -100.0850 287° West 445 512 43,000  Level Minneapolis Center
07:47AM 48.1928 -100.2581 288° West 445 512 43,000  Level Minneapolis Center
07:48AM 48.2300 -100.4347 288° West 445 512 43,000  Level Minneapolis Center
07:49AM 48.2675 -100.6083 288° West 445 512 43,000  Level Minneapolis Center
07:50AM 48.3047 -100.7825 288° West 445 512 43,000  Level Minneapolis Center
07:51AM 48.3433 -100.9603 284° West 445 512 43,000  Level Minneapolis Center
07:52AM 48.3747 -101.1528 284° West 445 512 43,000  Level Minneapolis Center
07:53AM 48.4044 -101.3294 270° West 440 506 43,000  Level Minneapolis Center
07:54AM 48.4039 -101.5206 260° West 447 514 43,000  Level Minneapolis Center
07:55AM 48.3822 -101.7117 262° West 452 520 43,000  Level Minneapolis Center
07:57AM 48.3364 -102.1683 261° West 467 537 43,000  Level Salt Lake Center
07:58AM 48.3156 -102.3592 261° West 467 537 43,000  Level Salt Lake Center
07:59AM 48.2964 -102.5497 260° West 466 536 43,000  Level Salt Lake Center
08:00AM 48.2744 -102.7389 261° West 464 534 43,000  Level Salt Lake Center
08:01AM 48.2536 -102.9275 261° West 463 533 43,000  Level Salt Lake Center
08:02AM 48.2336 -103.1147 260° West 461 531 43,000  Level Salt Lake Center
08:03AM 48.2128 -103.2994 260° West 458 527 43,000  Level Salt Lake Center
08:04AM 48.1914 -103.4828 253° West 454 522 43,000  Level Salt Lake Center
08:05AM 48.1547 -103.6631 230° Southwest 459 528 43,000  Level Salt Lake Center
08:06AM 48.0708 -103.8150 229° Southwest 476 548 43,000  Level Salt Lake Center
08:07AM 47.9850 -103.9642 229° Southwest 479 551 43,000  Level Salt Lake Center
08:08AM 47.8986 -104.1144 230° Southwest 482 555 43,000  Level Salt Lake Center
08:09AM 47.7950 -104.2964 229° Southwest 485 558 43,000  Level Salt Lake Center
08:10AM 47.7061 -104.4472 226° Southwest 487 560 43,000  Level Salt Lake Center
08:11AM 47.6119 -104.5939 226° Southwest 491 565 43,000  Level Salt Lake Center
08:12AM 47.5167 -104.7403 226° Southwest 494 568 43,000  Level Salt Lake Center
08:13AM 47.4219 -104.8864 227° Southwest 495 570 43,000  Level Salt Lake Center
08:14AM 47.3306 -105.0311 227° Southwest 491 565 43,000  Level Salt Lake Center
08:15AM 47.2378 -105.1769 220° Southwest 489 563 43,000  Level Salt Lake Center
08:16AM 47.1325 -105.3083 210° Southwest 495 570 43,000  Level Salt Lake Center
08:17AM 47.0081 -105.4142 212° Southwest 519 597 43,000  Level Salt Lake Center
08:18AM 46.8867 -105.5239 211° Southwest 515 593 43,000  Level Salt Lake Center
08:19AM 46.7672 -105.6267 211° Southwest 515 593 43,000  Level Salt Lake Center
08:20AM 46.6300 -105.7478 211° Southwest 515 593 43,000  Level Salt Lake Center
08:21AM 46.5106 -105.8500 210° Southwest 518 596 43,000  Level Salt Lake Center
08:22AM 46.3919 -105.9508 210° Southwest 517 595 43,000  Level Salt Lake Center
08:23AM 46.2531 -106.0664 208° Southwest 516 594 43,000  Level Salt Lake Center
08:24AM 46.1317 -106.1597 204° Southwest 514 592 43,000  Level Salt Lake Center
08:25AM 46.0067 -106.2406 185° South 511 588 43,000  Level Salt Lake Center
08:26AM 45.8561 -106.2592 190° South 555 639 43,000  Level Salt Lake Center
08:27AM 45.6886 -106.3003 190° South 551 634 43,000  Level Salt Lake Center
08:28AM 45.5453 -106.3364 192° South 549 632 43,000  Level Salt Lake Center
08:29AM 45.4039 -106.3783 190° South 545 627 43,000  Level Salt Lake Center
08:30AM 45.2353 -106.4203 188° South 547 629 43,000  Level Salt Lake Center
08:31AM 45.0925 -106.4475 189° South 543 625 43,000  Level Salt Lake Center
08:32AM 45.0436 -106.4589 190° South 544 626 43,000  Level Salt Lake Center
08:33AM 44.8761 -106.4986 189° South 545 627 43,000  Level Salt Lake Center
08:34AM 44.7325 -106.5319 189° South 545 627 43,000  Level Salt Lake Center
08:35AM 44.5900 -106.5636 183° South 541 623 43,000  Level Salt Lake Center
08:36AM 44.4425 -106.5744 168° South 550 633 43,000  Level Salt Lake Center
08:37AM 44.2689 -106.5211 184° South 571 657 43,000  Level Salt Lake Center
08:38AM 44.1242 -106.5336 224° Southwest 553 636 43,000  Level Salt Lake Center
08:39AM 44.0347 -106.6542 263° West 472 543 43,000  Level Salt Lake Center
08:40AM 44.0189 -106.8328 273° West 425 489 43,000  Level Salt Lake Center
08:41AM 44.0253 -106.9844 274° West 411 473 43,000  Level Salt Lake Center
08:42AM 44.0319 -107.1364 274° West 411 473 43,000  Level Salt Lake Center
08:43AM 44.0400 -107.3131 273° West 410 472 43,000  Level Salt Lake Center
08:44AM 44.0464 -107.4658 273° West 411 473 43,000  Level Salt Lake Center
08:45AM 44.0525 -107.6192 273° West 413 475 43,000  Level Salt Lake Center
08:46AM 44.0583 -107.7747 273° West 417 480 43,000  Level Salt Lake Center
08:47AM 44.0653 -107.9581 273° West 422 486 43,000  Level Salt Lake Center
08:48AM 44.0711 -108.1139 273° West 421 484 43,000  Level Salt Lake Center
08:49AM 44.0769 -108.2714 273° West 423 487 43,000  Level Salt Lake Center
08:50AM 44.0831 -108.4542 273° West 423 487 43,000  Level Salt Lake Center
08:51AM 44.0881 -108.6122 277° West 425 489 43,000  Level Salt Lake Center
08:52AM 44.1019 -108.7686 316° Northwest 426 490 43,000  Level Salt Lake Center
08:53AM 44.1811 -108.8736 North 427 491 43,000  Level Salt Lake Center
08:54AM 44.3200 -108.8461 27° Northeast 480 552 43,000  Level Salt Lake Center
08:55AM 44.4375 -108.7633 28° Northeast 495 570 43,000  Level Salt Lake Center
08:56AM 44.5536 -108.6778 27° Northeast 492 566 43,000  Level Salt Lake Center
08:57AM 44.6889 -108.5789 27° Northeast 490 564 43,000  Level Salt Lake Center
08:58AM 44.8050 -108.4950 27° Northeast 488 562 43,000  Level Salt Lake Center
08:59AM 44.9217 -108.4122 27° Northeast 487 560 43,000  Level Salt Lake Center
09:00AM 45.0567 -108.3139 28° Northeast 485 558 43,000  Level Salt Lake Center
09:01AM 45.1697 -108.2292 28° Northeast 480 552 43,000  Level Salt Lake Center
09:02AM 45.2831 -108.1442 28° Northeast 479 551 43,000  Level Salt Lake Center
09:03AM 45.3967 -108.0594 28° Northeast 480 552 43,000  Level Salt Lake Center
09:04AM 45.5278 -107.9611 28° Northeast 476 548 43,000  Level Salt Lake Center
09:05AM 45.6400 -107.8767 28° Northeast 475 547 43,000  Level Salt Lake Center
09:06AM 45.7517 -107.7928 28° Northeast 473 544 43,000  Level Salt Lake Center
09:07AM 45.8819 -107.6936 28° Northeast 474 545 43,000  Level Salt Lake Center
09:08AM 45.9928 -107.6097 28° Northeast 471 542 43,000  Level Salt Lake Center
09:09AM 46.1033 -107.5247 28° Northeast 471 542 43,000  Level Salt Lake Center
09:10AM 46.2319 -107.4256 28° Northeast 469 540 43,000  Level Salt Lake Center
09:11AM 46.3422 -107.3403 27° Northeast 470 541 43,000  Level Salt Lake Center
09:12AM 46.4539 -107.2564 28° Northeast 471 542 43,000  Level Salt Lake Center
09:13AM 46.5839 -107.1567 353° North 472 543 43,000  Level Salt Lake Center
09:14AM 46.6964 -107.1767 303° West 443 510 43,000  Level Salt Lake Center
09:15AM 46.7556 -107.3114 282° West 426 490 43,000  Level Salt Lake Center
09:16AM 46.7833 -107.5014 281° West 432 497 43,000  Level Salt Lake Center
09:17AM 46.8050 -107.6642 282° West 431 496 43,000  Level Salt Lake Center
09:18AM 46.8281 -107.8264 281° West 429 494 43,000  Level Salt Lake Center
09:19AM 46.8542 -108.0181 282° West 430 495 43,000  Level Salt Lake Center
09:20AM 46.8769 -108.1817 281° West 430 495 43,000  Level Salt Lake Center
09:21AM 46.8994 -108.3456 281° West 430 495 43,000  Level Salt Lake Center
09:22AM 46.9242 -108.5378 281° West 431 496 43,000  Level Salt Lake Center
09:23AM 46.9456 -108.7033 281° West 433 498 43,000  Level Salt Lake Center
09:24AM 46.9711 -108.8975 281° West 435 501 43,000 -60 Level Salt Lake Center
09:25AM 46.9931 -109.0711 281° West 435 501 42,900  Descending Salt Lake Center
09:26AM 47.0153 -109.2464 281° West 437 503 43,000  Climbing Salt Lake Center
09:27AM 47.0372 -109.4211 280° West 437 503 43,000 -60 Level Salt Lake Center
09:28AM 47.0589 -109.5964 280° West 438 504 42,900 -60 Descending Salt Lake Center
09:29AM 47.0803 -109.7717 281° West 437 503 42,900  Level Salt Lake Center
09:30AM 47.1028 -109.9453 279° West 436 502 43,000  Climbing Salt Lake Center
09:31AM 47.1231 -110.1264 280° West 437 503 43,000  Level Salt Lake Center
09:32AM 47.1425 -110.2967 280° West 437 503 43,000 -60 Level Salt Lake Center
09:33AM 47.1631 -110.4708 280° West 434 499 42,900  Descending Salt Lake Center
09:34AM 47.1831 -110.6450 279° West 433 498 43,000  Climbing Salt Lake Center
09:35AM 47.2028 -110.8211 279° West 435 501 43,000  Level Salt Lake Center
09:36AM 47.2225 -110.9989 279° West 438 504 43,000 -60 Level Salt Lake Center
09:37AM 47.2414 -111.1783 278° West 440 506 42,900 -60 Descending Salt Lake Center
09:38AM 47.2592 -111.3600 279° West 444 511 42,900  Level Salt Lake Center
09:39AM 47.2783 -111.5439 279° West 448 516 42,900  Level Salt Lake Center
09:44AM 47.3564 -112.3147 278° West 450 518 42,900  Level Salt Lake Center
09:45AM 47.3739 -112.4964 278° West 448 516 43,000  Climbing Salt Lake Center
09:46AM 47.3911 -112.6775 278° West 447 514 42,900  Descending Salt Lake Center
09:47AM 47.4078 -112.8600 278° West 449 517 43,000  Climbing Salt Lake Center
09:48AM 47.4267 -113.0558 277° West 448 516 42,900  Descending Salt Lake Center
09:49AM 47.4425 -113.2383 278° West 449 517 43,000  Climbing Salt Lake Center
09:50AM 47.4592 -113.4219 277° West 450 518 43,000 -60 Level Salt Lake Center
09:51AM 47.4744 -113.6053 278° West 450 518 42,900 -60 Descending Salt Lake Center
09:52AM 47.4908 -113.7906 277° West 453 521 42,900  Level Salt Lake Center
09:53AM 47.5061 -113.9750 277° West 452 520 43,000  Climbing Salt Lake Center
09:54AM 47.5214 -114.1592 277° West 450 518 42,900 -60 Descending Salt Lake Center
09:55AM 47.5361 -114.3439 277° West 450 518 42,900  Level Salt Lake Center
09:56AM 47.5506 -114.5297 261° West 451 519 43,000  Climbing Salt Lake Center
09:57AM 47.5344 -114.6772 214° Southwest 460 529 42,900  Descending Seattle Center
09:58AM 47.4267 -114.7844 195° South 488 562 43,000  Climbing Seattle Center
09:58AM 47.2925 -114.8361 194° South 497 572 42,900  Descending Salt Lake Center
10:00AM 47.1583 -114.8839 194° South 497 572 43,000  Climbing Salt Lake Center
10:01AM 47.0236 -114.9336 194° South 500 575 42,900  Descending Salt Lake Center
10:02AM 46.8886 -114.9833 194° South 501 577 43,000  Climbing Salt Lake Center
10:03AM 46.7547 -115.0322 194° South 499 574 43,000 -60 Level Seattle Center
10:04AM 46.6031 -115.0864 194° South 499 574 42,900  Descending Seattle Center
10:05AM 46.4867 -115.1292 194° South 497 572 43,000  Climbing Salt Lake Center
10:06AM 46.3372 -115.1825 193° South 492 566 43,000 -60 Level Seattle Center
10:07AM 46.2056 -115.2281 194° South 489 563 42,900  Descending Seattle Center
10:08AM 46.0742 -115.2750 189° South 487 560 43,000 60 Climbing Seattle Center
10:08AM 46.0706 -115.2758 194° South 486 559 43,000  Level Salt Lake Center
10:09AM 45.9250 -115.3275 194° South 483 556 43,000  Level Salt Lake Center
10:10AM 45.7994 -115.3714 193° South 484 557 43,000  Level Salt Lake Center
10:10AM 45.7781 -115.3783 194° South 484 557 43,000  Level Seattle Center
10:11AM 45.6511 -115.4231 194° South 487 560 43,000  Level Seattle Center
10:12AM 45.5239 -115.4672 194° South 491 565 43,000  Level Salt Lake Center
10:13AM 45.3972 -115.5108 194° South 490 564 43,000  Level Salt Lake Center
10:14AM 45.2519 -115.5611 194° South 483 556 43,000  Level Salt Lake Center
10:15AM 45.1275 -115.6042 193° South 481 554 43,000  Level Salt Lake Center
10:16AM 45.0033 -115.6456 194° South 479 551 43,000  Level Salt Lake Center
10:17AM 44.8581 -115.6958 194° South 480 552 43,000  Level Salt Lake Center
10:18AM 44.7342 -115.7397 239° Southwest 479 551 43,000  Level Salt Lake Center
10:19AM 44.6669 -115.8983 278° West 439 505 43,000  Level Salt Lake Center
10:20AM 44.6817 -116.0564 278° West 431 496 43,000  Level Salt Lake Center
10:21AM 44.7003 -116.2408 278° West 432 497 43,000  Level Salt Lake Center
10:22AM 44.7161 -116.3992 278° West 432 497 43,000  Level Salt Lake Center
10:23AM 44.7325 -116.5583 278° West 432 497 43,000  Level Salt Lake Center
10:24AM 44.7506 -116.7450 278° West 432 497 43,000  Level Salt Lake Center
10:25AM 44.7658 -116.9053 278° West 433 498 43,000  Level Salt Lake Center
10:26AM 44.7839 -117.0925 277° West 434 499 43,000  Level Salt Lake Center
10:27AM 44.7983 -117.2522 278° West 432 497 43,000  Level Salt Lake Center
10:28AM 44.8161 -117.4367 277° West 428 493 43,000  Level Salt Lake Center
10:29AM 44.8303 -117.5953 297° West 427 491 43,000  Level Salt Lake Center
10:30AM 44.8819 -117.7372 351° North 435 501 43,000  Level Salt Lake Center
10:31AM 45.0267 -117.7714 12° North 498 573 43,000  Level Salt Lake Center
10:32AM 45.1586 -117.7328 11° North 506 582 43,000  Level Salt Lake Center
10:33AM 45.2950 -117.6947 11° North 502 578 43,000  Level Seattle Center
10:34AM 45.4325 -117.6556 11° North 505 581 43,000  Level Seattle Center
10:35AM 45.5714 -117.6153 12° North 509 586 43,000  Level Seattle Center
10:36AM 45.7106 -117.5744 12° North 507 583 43,000 -60 Level Seattle Center
10:37AM 45.8494 -117.5333 11° North 508 585 42,900 -60 Descending Seattle Center
10:38AM 45.9875 -117.4933 11° North 509 586 42,900  Level Seattle Center
10:39AM 46.1258 -117.4531 12° North 508 585 42,900  Level Seattle Center
10:40AM 46.2639 -117.4111 12° North 509 586 42,900  Level Seattle Center
10:41AM 46.4019 -117.3697 12° North 507 583 43,000  Climbing Seattle Center
10:42AM 46.5389 -117.3289 12° North 504 580 42,900  Descending Seattle Center
10:43AM 46.7019 -117.2803 12° North 502 578 43,000  Climbing Seattle Center
10:44AM 46.8394 -117.2383 12° North 503 579 42,900  Descending Seattle Center
10:45AM 46.9758 -117.1958 12° North 503 579 43,000  Climbing Seattle Center
10:46AM 47.1128 -117.1536 12° North 504 580 43,000  Level Seattle Center
10:47AM 47.2483 -117.1108 12° North 502 578 43,000 -60 Level Seattle Center
10:49AM 47.3839 -117.0681 340° North 501 577 42,900  Descending Seattle Center
10:50AM 47.5133 -117.1361 287° West 484 557 43,000  Climbing Seattle Center
10:51AM 47.5489 -117.3050 270° West 465 535 43,000  Level Seattle Center
10:52AM 47.5497 -117.4919 270° West 457 526 43,000  Level Seattle Center
10:53AM 47.5486 -117.6761 270° West 452 520 43,000 -60 Level Seattle Center
10:54AM 47.5478 -117.8617 269° West 451 519 42,900  Descending Seattle Center
10:55AM 47.5461 -118.0458 270° West 449 517 43,000  Climbing Seattle Center
10:56AM 47.5450 -118.2294 269° West 448 516 42,900 -60 Descending Seattle Center
10:57AM 47.5428 -118.4142 269° West 449 517 42,900  Level Seattle Center
10:58AM 47.5408 -118.5992 269° West 451 519 42,900  Level Seattle Center
10:59AM 47.5369 -118.8222 269° West 453 521 42,900  Level Seattle Center
11:00AM 47.5350 -119.0097 268° West 456 525 42,900  Level Seattle Center
11:01AM 47.5314 -119.1969 268° West 456 525 43,000  Climbing Seattle Center
11:02AM 47.5278 -119.3847 268° West 457 526 42,900 -60 Descending Seattle Center
11:03AM 47.5242 -119.5708 268° West 456 525 42,900  Level Seattle Center
11:04AM 47.5200 -119.7619 268° West 461 531 43,000  Climbing Seattle Center
11:05AM 47.5156 -119.9494 268° West 460 529 42,900  Descending Seattle Center
11:06AM 47.5111 -120.1367 268° West 459 528 43,000  Climbing Seattle Center
11:07AM 47.5061 -120.3242 268° West 458 527 43,000 -60 Level Seattle Center
11:08AM 47.5006 -120.5103 267° West 456 525 42,900  Descending Seattle Center
11:11AM 47.4819 -121.0758 267° West 447 514 43,000  Climbing Seattle Center
11:12AM 47.4761 -121.2608 267° West 453 521 43,000  Level Seattle Center
11:13AM 47.4700 -121.4461 267° West 455 524 43,000  Level Seattle Center
11:14AM 47.4617 -121.6678 267° West 455 524 43,000  Level Seattle Center
11:15AM 47.4544 -121.8542 266° West 457 526 43,000  Level Seattle Center
11:16AM 47.4464 -122.0408 267° West 458 527 43,000  Level Seattle Center
11:17AM 47.4386 -122.2308 271° West 461 531 43,000  Level Seattle Center
11:18AM 47.4403 -122.4231 298° West 476 548 43,000  Level Seattle Center
11:19AM 47.5025 -122.5969 301° West 476 548 43,000 -660 Level Seattle Center
11:20AM 47.5717 -122.7669 300° West 480 552 41,700 -3,000 Descending Seattle Center
11:21AM 47.6342 -122.9269 300° West 458 527 37,000 -5,460 Descending Seattle Center
11:22AM 47.6961 -123.0897 299° West 455 524 30,600 -6,000 Descending Seattle Center
11:23AM 47.7583 -123.2558 298° West 459 528 24,900 -5,280 Descending Seattle Center
11:24AM 47.8133 -123.4108 307° West 434 499 19,900 -4,980 Descending Seattle Center
11:25AM 47.8878 -123.5564 North 379 436 14,800 -4,140 Descending Seattle Center
11:26AM 47.9750 -123.5408 63° Northeast 337 388 11,600 -1,920 Descending Seattle Center
11:27AM 48.0119 -123.4331 87° East 305 351 11,000 -300 Descending Seattle Center
11:28AM 48.0158 -123.3131 87° East 292 336 11,000  Level Seattle Center
11:29AM 48.0197 -123.1864 87° East 304 350 11,000  Level Seattle Center
11:30AM 48.0244 -123.0633 86° East 299 344 11,000  Level Seattle Center
11:31AM 48.0269 -123.0031 88° East 297 342 11,000  Level Seattle Center
11:31AM 48.0281 -122.9408 86° East 298 343 11,000  Level Seattle Center
11:31AM 48.0294 -122.9128 108° East 300 345 11,000 -120 Level Seattle Center
11:32AM 48.0117 -122.8292 143° Southeast 285 328 10,900 -240 Descending Seattle Center
11:32AM 47.9983 -122.8139 150° Southeast 270 311 10,800 -600 Descending Seattle Center
11:33AM 47.9531 -122.7742 148° Southeast 253 291 10,300 -720 Descending Seattle Center
11:33AM 47.9386 -122.7608 147° Southeast 250 288 10,100 -1,020 Descending Seattle Center
11:34AM 47.8847 -122.7092 153° Southeast 247 284 9,300 -900 Descending Seattle Center
11:34AM 47.8836 -122.7083 149° Southeast 245 282 9,200 -1,680 Descending Seattle Center
11:35AM 47.8294 -122.6603 175° South 236 272 7,600 -1,680 Descending Seattle Center
11:35AM 47.8272 -122.6600 174° South 227 261 7,500 -3,060 Descending Seattle Center
11:36AM 47.7697 -122.6506 176° South 211 243 4,500 -3,240 Descending Seattle Center
11:36AM 47.7672 -122.6503 129° Southeast 210 242 4,300 -2,220 Descending Seattle Center
11:37AM 47.7342 -122.5892 110° East 211 243 2,300 -1,980 Descending Seattle Center
11:37AM 47.7328 -122.5836 114° Southeast 212 244 2,300 -120 Level Seattle Center
11:38AM 47.7139 -122.5217 135° Southeast 178 205 2,200 -120 Descending Seattle Center
11:38AM 47.7122 -122.5192 118° Southeast 163 188 2,200  Level Seattle Center
11:39AM 47.6889 -122.4528 134° Southeast 158 182 2,200  Level Seattle Center
11:40AM 47.6636 -122.4136 159° South 158 182 2,200  Level Seattle Center
11:40AM 47.6583 -122.4106 153° Southeast 161 185 2,200 -120 Level Seattle Center
11:41AM 47.6258 -122.3856 147° Southeast 150 173 2,100 -300 Descending Seattle Center
11:42AM 47.6194 -122.3794 149° Southeast 141 162 1,900 -720 Descending Seattle Center
11:42AM 47.5967 -122.3594 286° West 125 144 1,400 -660 Descending Seattle Center
11:42AM 47.5972 -122.3622 149° Southeast 123 142 1,400 -720 Level Seattle Center
11:44AM 47.5628 -122.3317 149° Southeast 128 147 600 -660 Descending Seattle Center
11:44AM 47.5406 -122.3117 150° Southeast 123 142 100 -300 Descending Seattle Center
11:45AM 47.5103 -122.2858 150° Southeast 124 143 100  Level Seattle Center